Dew Point Data


Current

Temp 36.0 F. Dew Point 28.9 F.


Dew Point Comfort Scale

dewpoints

Date, Time Temperature Dew Point
Tue Nov 10 00:08:04 2020 68.0 F. 62.1 F.
Tue Nov 10 01:08:04 2020 68.0 F. 62.1 F.
Tue Nov 10 02:08:04 2020 67.0 F. 60.1 F.
Tue Nov 10 03:08:05 2020 67.0 F. 60.1 F.
Tue Nov 10 04:08:04 2020 67.0 F. 60.1 F.
Tue Nov 10 05:08:05 2020 67.0 F. 60.1 F.
Tue Nov 10 06:08:04 2020 67.0 F. 60.1 F.
Tue Nov 10 07:08:05 2020 67.0 F. 60.1 F.
Tue Nov 10 08:08:05 2020 67.0 F. 60.1 F.
Tue Nov 10 09:08:04 2020 70.0 F. 62.1 F.
Tue Nov 10 10:08:06 2020 70.0 F. 62.1 F.
Tue Nov 10 11:08:05 2020 73.0 F. 63.0 F.
Tue Nov 10 12:08:05 2020 73.0 F. 63.0 F.
Tue Nov 10 13:08:06 2020 78.0 F. 63.0 F.
Tue Nov 10 14:08:04 2020 78.0 F. 63.0 F.
Tue Nov 10 15:08:05 2020 77.0 F. 63.0 F.
Tue Nov 10 16:08:05 2020 76.0 F. 63.0 F.
Tue Nov 10 17:08:05 2020 74.0 F. 64.0 F.
Tue Nov 10 18:08:05 2020 74.0 F. 64.0 F.
Tue Nov 10 19:08:05 2020 73.0 F. 64.0 F.
Tue Nov 10 20:08:07 2020 72.0 F. 64.0 F.
Tue Nov 10 21:08:06 2020 58.0 F. 52.0 F.
Tue Nov 10 22:08:04 2020 57.0 F. 48.9 F.
Tue Nov 10 23:08:05 2020 57.0 F. 48.9 F.
Wed Nov 11 00:08:04 2020 54.0 F. 46.0 F.
Wed Nov 11 01:08:05 2020 51.0 F. 45.0 F.
Wed Nov 11 02:08:05 2020 49.0 F. 44.1 F.
Wed Nov 11 03:08:05 2020 49.0 F. 44.1 F.
Wed Nov 11 04:08:04 2020 47.0 F. 41.0 F.
Wed Nov 11 05:08:05 2020 47.0 F. 41.0 F.
Wed Nov 11 06:08:05 2020 44.0 F. 37.9 F.
Wed Nov 11 07:08:04 2020 43.0 F. 37.0 F.
Wed Nov 11 08:08:04 2020 43.0 F. 37.0 F.
Wed Nov 11 09:08:05 2020 42.0 F. 35.1 F.
Wed Nov 11 10:08:04 2020 47.0 F. 36.0 F.
Wed Nov 11 11:08:04 2020 48.0 F. 35.1 F.
Wed Nov 11 12:08:04 2020 51.0 F. 36.0 F.
Wed Nov 11 13:08:05 2020 53.0 F. 36.0 F.
Wed Nov 11 14:08:04 2020 53.0 F. 36.0 F.
Wed Nov 11 15:08:04 2020 55.0 F. 36.0 F.
Wed Nov 11 16:08:05 2020 55.0 F. 33.1 F.
Wed Nov 11 17:08:05 2020 54.0 F. 34.0 F.
Wed Nov 11 18:08:05 2020 47.0 F. 34.0 F.
Wed Nov 11 19:08:07 2020 46.0 F. 33.1 F.
Wed Nov 11 20:08:06 2020 45.0 F. 33.1 F.
Wed Nov 11 21:08:05 2020 42.0 F. 32.0 F.
Wed Nov 11 22:08:04 2020 42.0 F. 32.0 F.
Wed Nov 11 23:08:06 2020 39.0 F. 32.0 F.
Thu Nov 12 00:08:04 2020 39.0 F. 32.0 F.
Thu Nov 12 01:08:05 2020 37.0 F. 34.0 F.
Thu Nov 12 02:08:04 2020 34.0 F. 32.0 F.
Thu Nov 12 03:08:05 2020 32.0 F. 30.0 F.
Thu Nov 12 04:08:04 2020 32.0 F. 30.0 F.
Thu Nov 12 05:08:05 2020 32.0 F. 30.0 F.
Thu Nov 12 06:08:04 2020 31.0 F. 30.0 F.
Thu Nov 12 07:08:04 2020 31.0 F. 30.0 F.
Thu Nov 12 08:08:05 2020 30.0 F. 28.9 F.
Thu Nov 12 09:08:05 2020 43.0 F. 35.1 F.
Thu Nov 12 10:08:05 2020 48.0 F. 34.0 F.
Thu Nov 12 11:08:04 2020 48.0 F. 34.0 F.
Thu Nov 12 12:08:05 2020 56.0 F. 27.0 F.
Thu Nov 12 13:08:05 2020 56.0 F. 27.0 F.
Thu Nov 12 14:08:05 2020 57.0 F. 28.9 F.
Thu Nov 12 15:08:05 2020 61.0 F. 28.9 F.
Thu Nov 12 16:08:05 2020 61.0 F. 28.9 F.
Thu Nov 12 17:08:05 2020 60.0 F. 32.0 F.
Thu Nov 12 18:08:04 2020 49.0 F. 32.0 F.
Thu Nov 12 19:08:04 2020 49.0 F. 32.0 F.
Thu Nov 12 20:08:05 2020 48.0 F. 36.0 F.
Thu Nov 12 21:08:05 2020 48.0 F. 36.0 F.
Thu Nov 12 22:08:05 2020 48.0 F. 39.0 F.
Thu Nov 12 23:08:05 2020 49.0 F. 39.0 F.
Fri Nov 13 00:08:04 2020 47.0 F. 39.9 F.
Fri Nov 13 01:08:04 2020 42.0 F. 36.0 F.
Fri Nov 13 02:08:05 2020 42.0 F. 36.0 F.
Fri Nov 13 03:08:04 2020 49.0 F. 34.0 F.
Fri Nov 13 04:08:05 2020 49.0 F. 34.0 F.
Fri Nov 13 05:08:04 2020 49.0 F. 34.0 F.
Fri Nov 13 06:08:05 2020 49.0 F. 34.0 F.
Fri Nov 13 07:08:04 2020 49.0 F. 34.0 F.
Fri Nov 13 08:08:04 2020 39.0 F. 27.0 F.
Fri Nov 13 09:08:05 2020 42.0 F. 28.0 F.
Fri Nov 13 10:08:05 2020 43.0 F. 27.0 F.
Fri Nov 13 11:08:04 2020 47.0 F. 26.1 F.
Fri Nov 13 12:08:05 2020 47.0 F. 26.1 F.
Fri Nov 13 13:08:04 2020 50.0 F. 24.1 F.
Fri Nov 13 14:08:04 2020 51.0 F. 24.1 F.
Fri Nov 13 15:08:05 2020 51.0 F. 24.1 F.
Fri Nov 13 16:08:04 2020 52.0 F. 21.9 F.
Fri Nov 13 17:08:05 2020 46.0 F. 19.9 F.
Fri Nov 13 18:08:05 2020 46.0 F. 19.9 F.
Fri Nov 13 19:08:05 2020 39.0 F. 23.0 F.
Fri Nov 13 20:08:05 2020 38.0 F. 25.0 F.
Fri Nov 13 21:08:06 2020 37.0 F. 26.1 F.
Fri Nov 13 22:08:05 2020 34.0 F. 28.9 F.
Fri Nov 13 23:08:05 2020 35.0 F. 27.0 F.
Sat Nov 14 00:08:04 2020 35.0 F. 30.0 F.
Sat Nov 14 01:08:05 2020 35.0 F. 30.0 F.
Sat Nov 14 02:08:04 2020 39.0 F. 28.9 F.
Sat Nov 14 03:08:04 2020 40.0 F. 30.9 F.
Sat Nov 14 04:08:04 2020 38.0 F. 33.1 F.
Sat Nov 14 05:08:05 2020 38.0 F. 33.1 F.
Sat Nov 14 06:08:04 2020 39.0 F. 35.1 F.
Sat Nov 14 07:08:04 2020 40.0 F. 37.0 F.
Sat Nov 14 08:08:04 2020 41.0 F. 37.0 F.
Sat Nov 14 09:08:05 2020 42.0 F. 39.0 F.
Sat Nov 14 10:08:04 2020 44.0 F. 41.0 F.
Sat Nov 14 11:08:05 2020 47.0 F. 42.1 F.
Sat Nov 14 12:08:05 2020 47.0 F. 43.0 F.
Sat Nov 14 13:08:05 2020 48.0 F. 44.1 F.
Sat Nov 14 14:08:05 2020 49.0 F. 45.0 F.
Sat Nov 14 15:08:04 2020 51.0 F. 46.0 F.
Sat Nov 14 16:08:04 2020 50.0 F. 46.9 F.
Sat Nov 14 17:08:04 2020 50.0 F. 46.9 F.
Sat Nov 14 18:08:04 2020 50.0 F. 46.9 F.
Sat Nov 14 19:08:05 2020 54.0 F. 48.0 F.
Sat Nov 14 20:08:05 2020 62.0 F. 51.1 F.
Sat Nov 14 21:08:05 2020 62.0 F. 51.1 F.
Sat Nov 14 22:08:04 2020 64.0 F. 51.1 F.
Sat Nov 14 23:08:04 2020 69.0 F. 53.1 F.
Sun Nov 15 00:08:04 2020 69.0 F. 53.1 F.
Sun Nov 15 01:08:04 2020 69.0 F. 55.0 F.
Sun Nov 15 02:08:05 2020 58.0 F. 55.0 F.
Sun Nov 15 03:08:04 2020 57.0 F. 54.0 F.
Sun Nov 15 04:08:04 2020 57.0 F. 54.0 F.
Sun Nov 15 05:08:04 2020 57.0 F. 52.0 F.
Sun Nov 15 06:08:04 2020 56.0 F. 48.9 F.
Sun Nov 15 07:08:04 2020 54.0 F. 39.9 F.
Sun Nov 15 08:08:04 2020 51.0 F. 36.0 F.
Sun Nov 15 09:08:04 2020 51.0 F. 36.0 F.
Sun Nov 15 10:08:04 2020 50.0 F. 36.0 F.
Sun Nov 15 11:08:05 2020 52.0 F. 34.0 F.
Sun Nov 15 12:08:04 2020 54.0 F. 34.0 F.
Sun Nov 15 13:08:04 2020 55.0 F. 32.0 F.
Sun Nov 15 14:08:05 2020 55.0 F. 32.0 F.
Sun Nov 15 15:08:04 2020 56.0 F. 27.0 F.
Sun Nov 15 16:08:05 2020 56.0 F. 27.0 F.
Sun Nov 15 17:08:04 2020 53.0 F. 26.1 F.
Sun Nov 15 18:08:04 2020 53.0 F. 26.1 F.
Sun Nov 15 19:08:05 2020 46.0 F. 28.0 F.
Sun Nov 15 20:08:05 2020 45.0 F. 27.0 F.
Sun Nov 15 21:08:07 2020 44.0 F. 27.0 F.
Sun Nov 15 22:08:04 2020 43.0 F. 26.1 F.
Sun Nov 15 23:08:05 2020 43.0 F. 26.1 F.
Mon Nov 16 00:08:04 2020 42.0 F. 27.0 F.
Mon Nov 16 01:08:04 2020 43.0 F. 26.1 F.
Mon Nov 16 02:08:05 2020 39.0 F. 26.1 F.
Mon Nov 16 03:08:05 2020 38.0 F. 26.1 F.
Mon Nov 16 04:08:04 2020 35.0 F. 27.0 F.
Mon Nov 16 05:08:05 2020 32.0 F. 26.1 F.
Mon Nov 16 06:08:04 2020 32.0 F. 27.0 F.
Mon Nov 16 07:08:04 2020 32.0 F. 27.0 F.
Mon Nov 16 08:08:05 2020 34.0 F. 25.0 F.
Mon Nov 16 09:08:05 2020 38.0 F. 30.9 F.
Mon Nov 16 10:08:04 2020 53.0 F. 27.0 F.
Mon Nov 16 11:08:05 2020 53.0 F. 27.0 F.
Mon Nov 16 12:08:04 2020 60.0 F. 24.1 F.
Mon Nov 16 13:08:04 2020 62.0 F. 26.1 F.
Mon Nov 16 14:08:04 2020 62.0 F. 26.1 F.
Mon Nov 16 15:08:05 2020 62.0 F. 25.0 F.
Mon Nov 16 16:08:05 2020 61.0 F. 30.0 F.
Mon Nov 16 17:08:04 2020 60.0 F. 28.0 F.
Mon Nov 16 18:08:04 2020 55.0 F. 30.0 F.
Mon Nov 16 19:08:05 2020 53.0 F. 30.9 F.
Mon Nov 16 20:08:04 2020 53.0 F. 32.0 F.
Mon Nov 16 21:08:05 2020 51.0 F. 33.1 F.
Mon Nov 16 22:08:04 2020 51.0 F. 33.1 F.
Mon Nov 16 23:08:04 2020 51.0 F. 30.0 F.
Tue Nov 17 00:08:05 2020 51.0 F. 30.0 F.
Tue Nov 17 01:08:05 2020 52.0 F. 28.9 F.
Tue Nov 17 02:08:04 2020 50.0 F. 28.0 F.
Tue Nov 17 03:08:05 2020 48.0 F. 28.0 F.
Tue Nov 17 04:08:05 2020 47.0 F. 28.0 F.
Tue Nov 17 05:08:05 2020 47.0 F. 28.0 F.
Tue Nov 17 06:08:05 2020 47.0 F. 28.0 F.
Tue Nov 17 07:08:05 2020 47.0 F. 28.0 F.
Tue Nov 17 08:08:05 2020 42.0 F. 30.0 F.
Tue Nov 17 09:08:05 2020 42.0 F. 30.0 F.
Tue Nov 17 10:08:04 2020 44.0 F. 30.0 F.
Tue Nov 17 11:08:05 2020 45.0 F. 27.0 F.
Tue Nov 17 12:08:04 2020 48.0 F. 23.0 F.
Tue Nov 17 13:08:04 2020 49.0 F. 21.9 F.
Tue Nov 17 14:08:05 2020 50.0 F. 21.0 F.
Tue Nov 17 15:08:05 2020 50.0 F. 19.9 F.
Tue Nov 17 16:08:04 2020 49.0 F. 19.0 F.
Tue Nov 17 17:08:04 2020 45.0 F. 19.0 F.
Tue Nov 17 18:08:04 2020 45.0 F. 19.0 F.
Tue Nov 17 19:08:04 2020 38.0 F. 26.1 F.
Tue Nov 17 20:08:05 2020 38.0 F. 26.1 F.
Tue Nov 17 21:08:04 2020 33.0 F. 26.1 F.
Tue Nov 17 22:08:05 2020 33.0 F. 26.1 F.
Tue Nov 17 23:08:04 2020 31.0 F. 25.0 F.
Wed Nov 18 00:08:04 2020 30.0 F. 25.0 F.
Wed Nov 18 01:08:05 2020 30.0 F. 25.0 F.
Wed Nov 18 02:08:04 2020 32.0 F. 25.0 F.
Wed Nov 18 03:08:04 2020 30.0 F. 26.1 F.
Wed Nov 18 04:08:04 2020 30.0 F. 25.0 F.
Wed Nov 18 05:08:05 2020 28.0 F. 24.1 F.
Wed Nov 18 06:08:05 2020 32.0 F. 21.0 F.
Wed Nov 18 07:08:05 2020 32.0 F. 19.9 F.
Wed Nov 18 08:08:04 2020 32.0 F. 19.9 F.
Wed Nov 18 09:08:05 2020 36.0 F. 24.1 F.
Wed Nov 18 10:08:05 2020 47.0 F. 23.0 F.
Wed Nov 18 11:08:05 2020 50.0 F. 23.0 F.
Wed Nov 18 12:08:05 2020 53.0 F. 23.0 F.
Wed Nov 18 13:08:05 2020 55.0 F. 21.9 F.
Wed Nov 18 14:08:04 2020 57.0 F. 21.9 F.
Wed Nov 18 15:08:04 2020 58.0 F. 21.0 F.
Wed Nov 18 16:08:05 2020 58.0 F. 21.0 F.
Wed Nov 18 17:08:04 2020 53.0 F. 23.0 F.
Wed Nov 18 18:08:04 2020 53.0 F. 23.0 F.
Wed Nov 18 19:08:05 2020 50.0 F. 23.0 F.
Wed Nov 18 20:08:05 2020 50.0 F. 23.0 F.
Wed Nov 18 21:08:04 2020 51.0 F. 23.0 F.
Wed Nov 18 22:08:04 2020 51.0 F. 23.0 F.
Wed Nov 18 23:08:05 2020 51.0 F. 24.1 F.
Thu Nov 19 00:08:05 2020 49.0 F. 26.1 F.
Thu Nov 19 01:08:05 2020 49.0 F. 26.1 F.
Thu Nov 19 02:08:05 2020 55.0 F. 26.1 F.
Thu Nov 19 03:08:04 2020 55.0 F. 26.1 F.
Thu Nov 19 04:08:05 2020 54.0 F. 27.0 F.
Thu Nov 19 05:08:05 2020 54.0 F. 27.0 F.
Thu Nov 19 06:08:04 2020 53.0 F. 27.0 F.
Thu Nov 19 07:08:04 2020 53.0 F. 27.0 F.
Thu Nov 19 08:08:05 2020 56.0 F. 30.0 F.
Thu Nov 19 09:08:04 2020 56.0 F. 30.0 F.
Thu Nov 19 10:08:04 2020 58.0 F. 30.0 F.
Thu Nov 19 11:08:04 2020 61.0 F. 30.9 F.
Thu Nov 19 12:08:04 2020 63.0 F. 33.1 F.
Thu Nov 19 13:08:05 2020 65.0 F. 34.0 F.
Thu Nov 19 14:08:05 2020 67.0 F. 30.9 F.
Thu Nov 19 15:08:05 2020 68.0 F. 26.1 F.
Thu Nov 19 16:08:05 2020 68.0 F. 26.1 F.
Thu Nov 19 17:08:05 2020 67.0 F. 25.0 F.
Thu Nov 19 18:08:04 2020 63.0 F. 26.1 F.
Thu Nov 19 19:08:05 2020 63.0 F. 26.1 F.
Thu Nov 19 20:08:05 2020 63.0 F. 26.1 F.
Thu Nov 19 21:08:05 2020 60.0 F. 28.0 F.
Thu Nov 19 22:08:05 2020 59.0 F. 28.0 F.
Thu Nov 19 23:08:04 2020 59.0 F. 28.0 F.
Fri Nov 20 00:08:04 2020 58.0 F. 28.9 F.
Fri Nov 20 01:08:04 2020 56.0 F. 30.0 F.
Fri Nov 20 02:08:05 2020 55.0 F. 30.9 F.
Fri Nov 20 03:08:05 2020 55.0 F. 30.9 F.
Fri Nov 20 04:08:05 2020 56.0 F. 33.1 F.
Fri Nov 20 05:08:05 2020 56.0 F. 33.1 F.
Fri Nov 20 06:08:05 2020 55.0 F. 35.1 F.
Fri Nov 20 07:08:04 2020 56.0 F. 36.0 F.
Fri Nov 20 08:08:04 2020 56.0 F. 36.0 F.
Fri Nov 20 09:08:05 2020 56.0 F. 37.9 F.
Fri Nov 20 10:08:04 2020 58.0 F. 44.1 F.
Fri Nov 20 11:08:05 2020 58.0 F. 44.1 F.
Fri Nov 20 12:08:04 2020 62.0 F. 46.9 F.
Fri Nov 20 13:08:05 2020 62.0 F. 48.9 F.
Fri Nov 20 14:08:04 2020 64.0 F. 51.1 F.
Fri Nov 20 15:08:05 2020 66.0 F. 53.1 F.
Fri Nov 20 16:08:04 2020 66.0 F. 55.0 F.
Fri Nov 20 17:08:04 2020 66.0 F. 55.0 F.
Fri Nov 20 18:08:04 2020 65.0 F. 54.0 F.
Fri Nov 20 19:08:04 2020 62.0 F. 53.1 F.
Fri Nov 20 20:08:05 2020 62.0 F. 53.1 F.
Fri Nov 20 21:08:05 2020 62.0 F. 53.1 F.
Fri Nov 20 22:08:05 2020 61.0 F. 53.1 F.
Fri Nov 20 23:08:04 2020 59.0 F. 53.1 F.
Sat Nov 21 00:08:04 2020 59.0 F. 53.1 F.
Sat Nov 21 01:08:04 2020 59.0 F. 54.0 F.
Sat Nov 21 02:08:05 2020 59.0 F. 54.0 F.
Sat Nov 21 03:08:05 2020 59.0 F. 54.0 F.
Sat Nov 21 04:08:04 2020 54.0 F. 50.0 F.
Sat Nov 21 05:08:05 2020 52.0 F. 48.9 F.
Sat Nov 21 06:08:05 2020 52.0 F. 48.9 F.
Sat Nov 21 07:08:05 2020 51.0 F. 48.0 F.
Sat Nov 21 08:08:04 2020 51.0 F. 48.0 F.
Sat Nov 21 09:08:04 2020 49.0 F. 46.9 F.
Sat Nov 21 10:08:05 2020 50.0 F. 48.0 F.
Sat Nov 21 11:08:05 2020 50.0 F. 48.0 F.
Sat Nov 21 12:08:05 2020 51.0 F. 48.9 F.
Sat Nov 21 13:08:04 2020 51.0 F. 48.9 F.
Sat Nov 21 14:08:05 2020 51.0 F. 48.9 F.
Sat Nov 21 15:08:04 2020 50.0 F. 48.0 F.
Sat Nov 21 16:08:05 2020 50.0 F. 48.0 F.
Sat Nov 21 17:08:04 2020 50.0 F. 48.0 F.
Sat Nov 21 18:08:04 2020 50.0 F. 48.0 F.
Sat Nov 21 19:08:05 2020 50.0 F. 48.0 F.
Sat Nov 21 20:08:05 2020 50.0 F. 48.0 F.
Sat Nov 21 21:08:05 2020 50.0 F. 48.0 F.
Sat Nov 21 22:08:05 2020 50.0 F. 48.0 F.
Sat Nov 21 23:08:05 2020 49.0 F. 46.9 F.
Sun Nov 22 00:08:05 2020 48.0 F. 46.0 F.
Sun Nov 22 01:08:04 2020 48.0 F. 46.0 F.
Sun Nov 22 02:08:04 2020 47.0 F. 45.0 F.
Sun Nov 22 03:08:04 2020 46.0 F. 44.1 F.
Sun Nov 22 04:08:04 2020 46.0 F. 44.1 F.
Sun Nov 22 05:08:04 2020 46.0 F. 44.1 F.
Sun Nov 22 06:08:04 2020 45.0 F. 43.0 F.
Sun Nov 22 07:08:05 2020 45.0 F. 42.1 F.
Sun Nov 22 08:08:05 2020 44.0 F. 42.1 F.
Sun Nov 22 09:08:05 2020 44.0 F. 41.0 F.
Sun Nov 22 10:08:04 2020 44.0 F. 41.0 F.
Sun Nov 22 11:08:05 2020 44.0 F. 41.0 F.
Sun Nov 22 12:08:04 2020 43.0 F. 39.9 F.
Sun Nov 22 13:08:04 2020 45.0 F. 39.9 F.
Sun Nov 22 14:08:05 2020 44.0 F. 39.9 F.
Sun Nov 22 15:08:05 2020 46.0 F. 39.9 F.
Sun Nov 22 16:08:05 2020 45.0 F. 39.9 F.
Sun Nov 22 17:08:04 2020 46.0 F. 39.0 F.
Sun Nov 22 18:08:05 2020 45.0 F. 39.0 F.
Sun Nov 22 19:08:05 2020 40.0 F. 37.9 F.
Sun Nov 22 20:08:05 2020 40.0 F. 37.9 F.
Sun Nov 22 21:08:05 2020 37.0 F. 35.1 F.
Sun Nov 22 22:08:05 2020 37.0 F. 35.1 F.
Sun Nov 22 23:08:04 2020 35.0 F. 34.0 F.
Mon Nov 23 00:08:04 2020 34.0 F. 33.1 F.
Mon Nov 23 01:08:05 2020 34.0 F. 33.1 F.
Mon Nov 23 02:08:04 2020 35.0 F. 33.1 F.
Mon Nov 23 03:08:05 2020 35.0 F. 33.1 F.
Mon Nov 23 04:08:05 2020 33.0 F. 32.0 F.
Mon Nov 23 05:08:04 2020 33.0 F. 30.9 F.
Mon Nov 23 06:08:04 2020 30.0 F. 28.9 F.
Mon Nov 23 07:08:05 2020 30.0 F. 28.9 F.
Mon Nov 23 08:08:04 2020 30.0 F. 28.9 F.
Mon Nov 23 09:08:04 2020 33.0 F. 32.0 F.
Mon Nov 23 10:08:05 2020 45.0 F. 39.0 F.
Mon Nov 23 11:08:04 2020 48.0 F. 39.0 F.
Mon Nov 23 12:08:04 2020 48.0 F. 39.0 F.
Mon Nov 23 13:08:04 2020 50.0 F. 39.9 F.
Mon Nov 23 14:08:04 2020 49.0 F. 37.0 F.
Mon Nov 23 15:08:04 2020 54.0 F. 36.0 F.
Mon Nov 23 16:08:20 2020 54.0 F. 36.0 F.
Mon Nov 23 17:08:05 2020 54.0 F. 36.0 F.
Mon Nov 23 18:08:05 2020 51.0 F. 37.0 F.
Mon Nov 23 19:08:05 2020 47.0 F. 39.0 F.
Mon Nov 23 20:08:04 2020 45.0 F. 37.0 F.
Mon Nov 23 21:08:05 2020 43.0 F. 37.0 F.
Mon Nov 23 22:08:04 2020 43.0 F. 36.0 F.
Mon Nov 23 23:08:04 2020 44.0 F. 36.0 F.
Tue Nov 24 00:08:05 2020 42.0 F. 37.0 F.
Tue Nov 24 01:08:05 2020 43.0 F. 37.0 F.
Tue Nov 24 02:08:05 2020 44.0 F. 37.0 F.
Tue Nov 24 03:08:05 2020 44.0 F. 37.0 F.
Tue Nov 24 04:08:04 2020 43.0 F. 37.9 F.
Tue Nov 24 05:08:05 2020 42.0 F. 37.0 F.
Tue Nov 24 06:08:04 2020 45.0 F. 36.0 F.
Tue Nov 24 07:08:05 2020 45.0 F. 36.0 F.
Tue Nov 24 08:08:04 2020 45.0 F. 36.0 F.
Tue Nov 24 09:08:04 2020 46.0 F. 36.0 F.
Tue Nov 24 10:08:05 2020 47.0 F. 36.0 F.
Tue Nov 24 11:08:05 2020 50.0 F. 37.0 F.
Tue Nov 24 12:08:05 2020 51.0 F. 37.0 F.
Tue Nov 24 13:08:05 2020 52.0 F. 36.0 F.
Tue Nov 24 14:08:04 2020 53.0 F. 37.9 F.
Tue Nov 24 15:08:04 2020 54.0 F. 37.9 F.
Tue Nov 24 16:08:04 2020 53.0 F. 37.0 F.
Tue Nov 24 17:08:04 2020 51.0 F. 37.9 F.
Tue Nov 24 18:08:04 2020 50.0 F. 37.9 F.
Tue Nov 24 19:08:05 2020 49.0 F. 37.0 F.
Tue Nov 24 20:08:05 2020 51.0 F. 36.0 F.
Tue Nov 24 21:08:04 2020 53.0 F. 35.1 F.
Tue Nov 24 22:08:04 2020 51.0 F. 39.0 F.
Tue Nov 24 23:08:04 2020 47.0 F. 43.0 F.
Wed Nov 25 00:08:04 2020 47.0 F. 43.0 F.
Wed Nov 25 01:08:04 2020 47.0 F. 46.0 F.
Wed Nov 25 02:08:04 2020 49.0 F. 46.9 F.
Wed Nov 25 03:08:05 2020 49.0 F. 46.9 F.
Wed Nov 25 04:08:04 2020 51.0 F. 48.9 F.
Wed Nov 25 05:08:04 2020 51.0 F. 48.9 F.
Wed Nov 25 06:08:05 2020 49.0 F. 48.0 F.
Wed Nov 25 07:08:04 2020 49.0 F. 48.0 F.
Wed Nov 25 08:08:04 2020 57.0 F. 53.6 F.
Wed Nov 25 09:08:05 2020 59.0 F. 55.4 F.
Wed Nov 25 10:08:04 2020 59.0 F. 55.4 F.
Wed Nov 25 11:08:04 2020 63.0 F. 55.4 F.
Wed Nov 25 12:08:04 2020 63.0 F. 53.6 F.
Wed Nov 25 13:08:04 2020 59.0 F. 53.6 F.
Wed Nov 25 14:08:05 2020 59.0 F. 53.6 F.
Wed Nov 25 15:08:05 2020 59.0 F. 53.6 F.
Wed Nov 25 16:08:04 2020 57.0 F. 48.2 F.
Wed Nov 25 17:08:05 2020 57.0 F. 48.2 F.
Wed Nov 25 18:08:04 2020 57.0 F. 48.2 F.
Wed Nov 25 19:08:04 2020 57.0 F. 48.2 F.
Wed Nov 25 20:08:05 2020 57.0 F. 48.2 F.
Wed Nov 25 21:08:05 2020 57.0 F. 48.2 F.
Wed Nov 25 22:08:04 2020 57.0 F. 48.2 F.
Wed Nov 25 23:08:04 2020 57.0 F. 48.2 F.
Thu Nov 26 00:08:05 2020 57.0 F. 48.2 F.
Thu Nov 26 01:08:04 2020 57.0 F. 48.2 F.
Thu Nov 26 02:08:05 2020 57.0 F. 48.2 F.
Thu Nov 26 03:08:05 2020 57.0 F. 48.2 F.
Thu Nov 26 04:08:04 2020 57.0 F. 48.2 F.
Thu Nov 26 05:08:04 2020 57.0 F. 48.2 F.
Thu Nov 26 06:08:05 2020 57.0 F. 48.2 F.
Thu Nov 26 07:08:05 2020 57.0 F. 48.2 F.
Thu Nov 26 08:08:04 2020 46.0 F. 42.8 F.
Thu Nov 26 09:08:04 2020 46.0 F. 42.8 F.
Thu Nov 26 10:08:04 2020 48.0 F. 42.8 F.
Thu Nov 26 11:08:04 2020 48.0 F. 41.0 F.
Thu Nov 26 12:08:04 2020 48.0 F. 42.8 F.
Thu Nov 26 13:08:04 2020 48.0 F. 42.8 F.
Thu Nov 26 14:08:04 2020 48.0 F. 42.8 F.
Thu Nov 26 15:08:04 2020 48.0 F. 42.8 F.
Thu Nov 26 16:08:05 2020 48.0 F. 42.8 F.
Thu Nov 26 17:08:04 2020 48.0 F. 42.8 F.
Thu Nov 26 18:08:04 2020 48.0 F. 42.8 F.
Thu Nov 26 19:08:04 2020 45.0 F. 39.2 F.
Thu Nov 26 20:08:05 2020 45.0 F. 39.2 F.
Thu Nov 26 21:08:05 2020 45.0 F. 39.2 F.
Thu Nov 26 22:08:04 2020 45.0 F. 39.2 F.
Thu Nov 26 23:08:04 2020 45.0 F. 39.2 F.
Fri Nov 27 00:08:05 2020 45.0 F. 39.2 F.
Fri Nov 27 01:08:04 2020 45.0 F. 39.2 F.
Fri Nov 27 02:08:05 2020 45.0 F. 39.2 F.
Fri Nov 27 03:08:04 2020 45.0 F. 39.2 F.
Fri Nov 27 04:08:04 2020 45.0 F. 39.2 F.
Fri Nov 27 05:08:04 2020 45.0 F. 39.2 F.
Fri Nov 27 06:08:05 2020 45.0 F. 39.2 F.
Fri Nov 27 07:08:04 2020 45.0 F. 39.2 F.
Fri Nov 27 08:08:05 2020 37.0 F. 35.6 F.
Fri Nov 27 09:08:05 2020 41.0 F. 37.4 F.
Fri Nov 27 10:08:05 2020 45.0 F. 42.8 F.
Fri Nov 27 11:08:05 2020 48.0 F. 44.6 F.
Fri Nov 27 12:08:04 2020 53.0 F. 44.1 F.
Fri Nov 27 13:08:05 2020 58.0 F. 44.1 F.
Fri Nov 27 14:08:04 2020 58.0 F. 44.1 F.
Fri Nov 27 15:08:05 2020 58.0 F. 45.0 F.
Fri Nov 27 16:08:04 2020 57.0 F. 45.0 F.
Fri Nov 27 17:08:04 2020 55.0 F. 43.0 F.
Fri Nov 27 18:08:05 2020 50.0 F. 43.0 F.
Fri Nov 27 19:08:04 2020 48.0 F. 41.0 F.
Fri Nov 27 20:08:05 2020 45.0 F. 39.9 F.
Fri Nov 27 21:08:05 2020 45.0 F. 39.9 F.
Fri Nov 27 22:08:05 2020 44.0 F. 37.0 F.
Fri Nov 27 23:08:04 2020 41.0 F. 36.0 F.
Sat Nov 28 00:08:05 2020 38.0 F. 33.1 F.
Sat Nov 28 01:08:04 2020 38.0 F. 32.0 F.
Sat Nov 28 02:08:05 2020 38.0 F. 32.0 F.
Sat Nov 28 03:08:04 2020 35.0 F. 32.0 F.
Sat Nov 28 04:08:05 2020 31.0 F. 30.0 F.
Sat Nov 28 05:08:04 2020 31.0 F. 28.9 F.
Sat Nov 28 06:08:05 2020 30.0 F. 28.0 F.
Sat Nov 28 07:08:05 2020 29.0 F. 27.0 F.
Sat Nov 28 08:08:05 2020 32.0 F. 30.0 F.
Sat Nov 28 09:08:05 2020 32.0 F. 30.0 F.
Sat Nov 28 10:08:05 2020 38.0 F. 33.1 F.
Sat Nov 28 11:08:04 2020 42.0 F. 30.0 F.
Sat Nov 28 12:08:04 2020 45.0 F. 30.0 F.
Sat Nov 28 13:08:04 2020 48.0 F. 27.0 F.
Sat Nov 28 14:08:04 2020 50.0 F. 28.0 F.
Sat Nov 28 15:08:04 2020 51.0 F. 28.0 F.
Sat Nov 28 16:08:04 2020 51.0 F. 28.0 F.
Sat Nov 28 17:08:04 2020 46.0 F. 27.0 F.
Sat Nov 28 18:08:04 2020 42.0 F. 30.0 F.
Sat Nov 28 19:08:05 2020 39.0 F. 30.9 F.
Sat Nov 28 20:08:05 2020 36.0 F. 28.9 F.
Sat Nov 28 21:08:04 2020 36.0 F. 28.9 F.
Sat Nov 28 22:08:05 2020 34.0 F. 28.9 F.
Sat Nov 28 23:08:04 2020 31.0 F. 28.0 F.
Sun Nov 29 00:08:04 2020 32.0 F. 28.0 F.
Sun Nov 29 01:08:04 2020 30.0 F. 27.0 F.
Sun Nov 29 02:08:05 2020 30.0 F. 27.0 F.
Sun Nov 29 03:08:04 2020 31.0 F. 28.0 F.
Sun Nov 29 04:08:04 2020 31.0 F. 28.0 F.
Sun Nov 29 05:08:05 2020 31.0 F. 28.0 F.
Sun Nov 29 06:08:05 2020 28.0 F. 26.1 F.
Sun Nov 29 07:08:04 2020 28.0 F. 26.1 F.
Sun Nov 29 08:08:05 2020 28.0 F. 25.0 F.
Sun Nov 29 09:08:05 2020 30.0 F. 28.0 F.
Sun Nov 29 10:08:05 2020 36.0 F. 32.0 F.
Sun Nov 29 11:08:05 2020 43.0 F. 32.0 F.
Sun Nov 29 12:08:05 2020 50.0 F. 28.0 F.
Sun Nov 29 13:08:05 2020 51.0 F. 28.0 F.
Sun Nov 29 14:08:05 2020 51.0 F. 27.0 F.
Sun Nov 29 15:08:05 2020 50.0 F. 28.9 F.
Sun Nov 29 16:08:04 2020 50.0 F. 28.9 F.
Sun Nov 29 17:08:04 2020 50.0 F. 28.0 F.
Sun Nov 29 18:08:04 2020 47.0 F. 35.1 F.
Sun Nov 29 19:08:04 2020 46.0 F. 35.1 F.
Sun Nov 29 20:08:05 2020 47.0 F. 33.1 F.
Sun Nov 29 21:08:04 2020 45.0 F. 35.1 F.
Sun Nov 29 22:08:05 2020 42.0 F. 34.0 F.
Sun Nov 29 23:08:04 2020 42.0 F. 34.0 F.
Mon Nov 30 00:08:04 2020 38.0 F. 32.0 F.
Mon Nov 30 01:08:04 2020 37.0 F. 32.0 F.
Mon Nov 30 02:08:04 2020 37.0 F. 28.0 F.
Mon Nov 30 03:08:05 2020 37.0 F. 28.0 F.
Mon Nov 30 04:08:05 2020 37.0 F. 26.1 F.
Mon Nov 30 05:08:05 2020 36.0 F. 24.1 F.
Mon Nov 30 06:08:04 2020 33.0 F. 23.0 F.
Mon Nov 30 07:08:05 2020 33.0 F. 23.0 F.
Mon Nov 30 08:08:04 2020 32.0 F. 21.9 F.
Mon Nov 30 09:08:04 2020 32.0 F. 21.9 F.
Mon Nov 30 10:08:04 2020 32.0 F. 24.1 F.
Mon Nov 30 11:08:05 2020 33.0 F. 24.1 F.
Mon Nov 30 12:08:05 2020 35.0 F. 24.1 F.
Mon Nov 30 13:08:04 2020 35.0 F. 21.9 F.
Mon Nov 30 14:08:04 2020 35.0 F. 21.9 F.
Mon Nov 30 15:08:04 2020 35.0 F. 21.0 F.
Mon Nov 30 16:08:04 2020 35.0 F. 21.0 F.
Mon Nov 30 17:08:05 2020 34.0 F. 21.0 F.
Mon Nov 30 18:08:04 2020 33.0 F. 21.0 F.
Mon Nov 30 19:08:05 2020 33.0 F. 19.9 F.
Mon Nov 30 20:08:05 2020 33.0 F. 19.9 F.
Mon Nov 30 21:08:06 2020 32.0 F. 17.1 F.
Mon Nov 30 22:08:05 2020 32.0 F. 18.0 F.
Mon Nov 30 23:08:05 2020 32.0 F. 18.0 F.
Tue Dec 1 00:08:04 2020 32.0 F. 18.0 F.
Tue Dec 1 01:08:05 2020 31.0 F. 19.0 F.
Tue Dec 1 02:08:04 2020 31.0 F. 19.0 F.
Tue Dec 1 03:08:05 2020 31.0 F. 19.0 F.
Tue Dec 1 04:08:04 2020 31.0 F. 19.0 F.
Tue Dec 1 05:08:05 2020 28.0 F. 19.0 F.
Tue Dec 1 06:08:04 2020 28.0 F. 19.0 F.
Tue Dec 1 07:08:05 2020 27.0 F. 18.0 F.
Tue Dec 1 08:08:05 2020 27.0 F. 19.9 F.
Tue Dec 1 09:08:04 2020 30.0 F. 21.0 F.
Tue Dec 1 10:08:05 2020 33.0 F. 21.0 F.
Tue Dec 1 11:08:04 2020 36.0 F. 19.0 F.
Tue Dec 1 12:08:05 2020 36.0 F. 19.0 F.
Tue Dec 1 13:08:04 2020 36.0 F. 19.0 F.
Tue Dec 1 14:08:04 2020 40.0 F. 19.9 F.
Tue Dec 1 15:08:05 2020 41.0 F. 19.0 F.
Tue Dec 1 16:08:05 2020 41.0 F. 19.0 F.
Tue Dec 1 17:08:05 2020 40.0 F. 15.1 F.
Tue Dec 1 18:08:04 2020 33.0 F. 19.0 F.
Tue Dec 1 19:08:06 2020 29.0 F. 19.0 F.
Tue Dec 1 20:08:05 2020 27.0 F. 19.0 F.
Tue Dec 1 21:08:05 2020 27.0 F. 19.0 F.
Tue Dec 1 22:08:05 2020 25.0 F. 19.0 F.
Tue Dec 1 23:08:04 2020 25.0 F. 19.0 F.
Wed Dec 2 00:08:04 2020 23.0 F. 19.0 F.
Wed Dec 2 01:08:05 2020 23.0 F. 19.0 F.
Wed Dec 2 02:08:05 2020 22.0 F. 18.0 F.
Wed Dec 2 03:08:04 2020 22.0 F. 18.0 F.
Wed Dec 2 04:08:04 2020 21.0 F. 18.0 F.
Wed Dec 2 05:08:04 2020 21.0 F. 17.1 F.
Wed Dec 2 06:08:05 2020 21.0 F. 17.1 F.
Wed Dec 2 07:08:04 2020 21.0 F. 17.1 F.
Wed Dec 2 08:08:04 2020 21.0 F. 17.1 F.
Wed Dec 2 09:08:04 2020 31.0 F. 25.0 F.
Wed Dec 2 10:08:04 2020 31.0 F. 25.0 F.
Wed Dec 2 11:08:04 2020 37.0 F. 28.9 F.
Wed Dec 2 12:08:05 2020 47.0 F. 28.0 F.
Wed Dec 2 13:08:04 2020 47.0 F. 28.0 F.
Wed Dec 2 14:08:05 2020 51.0 F. 25.0 F.
Wed Dec 2 15:08:05 2020 51.0 F. 25.0 F.
Wed Dec 2 16:08:04 2020 48.0 F. 23.0 F.
Wed Dec 2 17:08:04 2020 42.0 F. 23.0 F.
Wed Dec 2 18:08:05 2020 42.0 F. 23.0 F.
Wed Dec 2 19:08:04 2020 36.0 F. 26.1 F.
Wed Dec 2 20:08:05 2020 37.0 F. 25.0 F.
Wed Dec 2 21:08:05 2020 37.0 F. 25.0 F.
Wed Dec 2 22:08:04 2020 35.0 F. 26.1 F.
Wed Dec 2 23:08:05 2020 32.0 F. 27.0 F.
Thu Dec 3 00:08:05 2020 29.0 F. 25.0 F.
Thu Dec 3 01:08:05 2020 29.0 F. 25.0 F.
Thu Dec 3 02:08:05 2020 30.0 F. 26.1 F.
Thu Dec 3 03:08:04 2020 31.0 F. 27.0 F.
Thu Dec 3 04:08:04 2020 31.0 F. 27.0 F.
Thu Dec 3 05:08:05 2020 32.0 F. 28.9 F.
Thu Dec 3 06:08:04 2020 34.0 F. 30.0 F.
Thu Dec 3 07:08:05 2020 34.0 F. 30.0 F.
Thu Dec 3 08:08:05 2020 34.0 F. 30.0 F.
Thu Dec 3 09:08:04 2020 37.0 F. 30.0 F.
Thu Dec 3 10:08:04 2020 37.0 F. 30.0 F.
Thu Dec 3 11:08:05 2020 38.0 F. 30.9 F.
Thu Dec 3 12:08:04 2020 40.0 F. 33.1 F.
Thu Dec 3 13:08:05 2020 40.0 F. 34.0 F.
Thu Dec 3 14:08:04 2020 43.0 F. 34.0 F.
Thu Dec 3 15:08:05 2020 43.0 F. 34.0 F.
Thu Dec 3 16:08:04 2020 44.0 F. 33.1 F.
Thu Dec 3 17:08:04 2020 43.0 F. 35.1 F.
Thu Dec 3 18:08:05 2020 42.0 F. 34.0 F.
Thu Dec 3 19:08:05 2020 41.0 F. 34.0 F.
Thu Dec 3 20:08:05 2020 41.0 F. 34.0 F.
Thu Dec 3 21:08:04 2020 34.0 F. 30.9 F.
Thu Dec 3 22:08:05 2020 34.0 F. 30.9 F.
Thu Dec 3 23:08:05 2020 31.0 F. 28.9 F.
Fri Dec 4 00:08:04 2020 31.0 F. 28.9 F.
Fri Dec 4 01:08:04 2020 30.0 F. 28.0 F.
Fri Dec 4 02:08:05 2020 29.0 F. 27.0 F.
Fri Dec 4 03:08:04 2020 25.0 F. 24.1 F.
Fri Dec 4 04:08:05 2020 25.0 F. 24.1 F.
Fri Dec 4 05:08:04 2020 28.0 F. 26.1 F.
Fri Dec 4 06:08:05 2020 26.0 F. 24.1 F.
Fri Dec 4 07:08:05 2020 25.0 F. 23.0 F.
Fri Dec 4 08:08:04 2020 25.0 F. 23.0 F.
Fri Dec 4 09:08:05 2020 34.0 F. 30.9 F.
Fri Dec 4 10:08:04 2020 38.0 F. 35.1 F.
Fri Dec 4 11:08:04 2020 38.0 F. 35.1 F.
Fri Dec 4 12:08:05 2020 42.0 F. 37.9 F.
Fri Dec 4 13:08:04 2020 44.0 F. 37.9 F.
Fri Dec 4 14:08:05 2020 44.0 F. 35.1 F.
Fri Dec 4 15:08:05 2020 44.0 F. 35.1 F.
Fri Dec 4 16:08:04 2020 48.0 F. 33.1 F.
Fri Dec 4 17:08:04 2020 48.0 F. 33.1 F.
Fri Dec 4 18:08:04 2020 44.0 F. 30.9 F.
Fri Dec 4 19:08:04 2020 38.0 F. 30.9 F.
Fri Dec 4 20:08:04 2020 38.0 F. 30.9 F.
Fri Dec 4 21:08:04 2020 35.0 F. 30.0 F.
Fri Dec 4 22:08:04 2020 32.0 F. 28.0 F.
Fri Dec 4 23:08:05 2020 29.0 F. 26.1 F.
Sat Dec 5 00:08:05 2020 29.0 F. 26.1 F.
Sat Dec 5 01:08:05 2020 36.0 F. 28.0 F.
Sat Dec 5 02:08:04 2020 31.0 F. 26.1 F.
Sat Dec 5 03:08:04 2020 31.0 F. 26.1 F.
Sat Dec 5 04:08:05 2020 36.0 F. 28.0 F.
Sat Dec 5 05:08:04 2020 31.0 F. 27.0 F.
Sat Dec 5 06:08:05 2020 27.0 F. 25.0 F.
Sat Dec 5 07:08:04 2020 27.0 F. 25.0 F.
Sat Dec 5 08:08:05 2020 28.0 F. 24.1 F.
Sat Dec 5 09:08:04 2020 29.0 F. 27.0 F.
Sat Dec 5 10:08:05 2020 43.0 F. 32.0 F.
Sat Dec 5 11:08:04 2020 47.0 F. 32.0 F.
Sat Dec 5 12:08:04 2020 50.0 F. 32.0 F.
Sat Dec 5 13:08:04 2020 50.0 F. 32.0 F.
Sat Dec 5 14:08:05 2020 54.0 F. 33.1 F.
Sat Dec 5 15:08:04 2020 53.0 F. 33.1 F.
Sat Dec 5 16:08:05 2020 53.0 F. 33.1 F.
Sat Dec 5 17:08:05 2020 51.0 F. 34.0 F.
Sat Dec 5 18:08:04 2020 45.0 F. 33.1 F.
Sat Dec 5 19:08:04 2020 43.0 F. 32.0 F.
Sat Dec 5 20:08:04 2020 43.0 F. 32.0 F.
Sat Dec 5 21:08:05 2020 33.0 F. 28.9 F.
Sat Dec 5 22:08:04 2020 33.0 F. 30.0 F.
Sat Dec 5 23:08:05 2020 31.0 F. 28.0 F.
Sun Dec 6 00:08:05 2020 32.0 F. 28.9 F.
Sun Dec 6 01:08:05 2020 32.0 F. 28.9 F.
Sun Dec 6 02:08:05 2020 30.0 F. 27.0 F.
Sun Dec 6 03:08:05 2020 30.0 F. 27.0 F.
Sun Dec 6 04:08:05 2020 28.0 F. 25.0 F.
Sun Dec 6 05:08:04 2020 29.0 F. 27.0 F.
Sun Dec 6 06:08:04 2020 29.0 F. 27.0 F.
Sun Dec 6 07:08:04 2020 28.0 F. 25.0 F.
Sun Dec 6 08:08:04 2020 32.0 F. 28.9 F.
Sun Dec 6 09:08:05 2020 32.0 F. 28.9 F.
Sun Dec 6 10:08:04 2020 35.0 F. 30.0 F.
Sun Dec 6 11:08:05 2020 37.0 F. 30.9 F.
Sun Dec 6 12:08:04 2020 40.0 F. 32.0 F.
Sun Dec 6 13:08:05 2020 40.0 F. 32.0 F.
Sun Dec 6 14:08:04 2020 44.0 F. 33.1 F.
Sun Dec 6 15:08:05 2020 44.0 F. 32.0 F.
Sun Dec 6 16:08:04 2020 44.0 F. 32.0 F.
Sun Dec 6 17:08:04 2020 40.0 F. 30.0 F.
Sun Dec 6 18:08:04 2020 39.0 F. 28.9 F.
Sun Dec 6 19:08:05 2020 36.0 F. 27.0 F.
Sun Dec 6 20:08:05 2020 36.0 F. 27.0 F.
Sun Dec 6 21:08:05 2020 34.0 F. 27.0 F.
Sun Dec 6 22:08:05 2020 33.0 F. 27.0 F.
Sun Dec 6 23:08:04 2020 33.0 F. 27.0 F.
Mon Dec 7 00:08:05 2020 33.0 F. 27.0 F.
Mon Dec 7 01:08:05 2020 31.0 F. 27.0 F.
Mon Dec 7 02:08:05 2020 33.0 F. 28.0 F.
Mon Dec 7 03:08:05 2020 33.0 F. 28.0 F.
Mon Dec 7 04:08:05 2020 33.0 F. 28.9 F.
Mon Dec 7 05:08:05 2020 34.0 F. 30.0 F.
Mon Dec 7 06:08:04 2020 36.0 F. 28.9 F.
Mon Dec 7 07:08:05 2020 36.0 F. 28.9 F.
Mon Dec 7 08:08:05 2020 37.0 F. 30.0 F.
Mon Dec 7 09:08:04 2020 37.0 F. 30.0 F.
Mon Dec 7 10:08:05 2020 38.0 F. 30.9 F.
Mon Dec 7 11:08:04 2020 42.0 F. 30.9 F.
Mon Dec 7 12:08:05 2020 42.0 F. 30.9 F.
Mon Dec 7 13:08:05 2020 44.0 F. 30.0 F.
Mon Dec 7 14:08:04 2020 42.0 F. 28.9 F.
Mon Dec 7 15:08:05 2020 42.0 F. 30.0 F.
Mon Dec 7 16:08:05 2020 42.0 F. 30.0 F.
Mon Dec 7 17:08:04 2020 42.0 F. 30.0 F.
Mon Dec 7 18:08:05 2020 39.0 F. 28.9 F.
Mon Dec 7 19:08:05 2020 39.0 F. 28.9 F.
Mon Dec 7 20:08:04 2020 35.0 F. 28.0 F.
Mon Dec 7 21:08:05 2020 34.0 F. 28.0 F.
Mon Dec 7 22:08:04 2020 30.0 F. 27.0 F.
Mon Dec 7 23:08:04 2020 28.0 F. 25.0 F.
Tue Dec 8 00:08:05 2020 28.0 F. 25.0 F.
Tue Dec 8 01:08:04 2020 26.0 F. 24.1 F.
Tue Dec 8 02:08:05 2020 26.0 F. 24.1 F.
Tue Dec 8 03:08:05 2020 24.0 F. 21.9 F.
Tue Dec 8 04:08:05 2020 26.0 F. 23.0 F.
Tue Dec 8 05:08:05 2020 27.0 F. 25.0 F.
Tue Dec 8 06:08:04 2020 27.0 F. 25.0 F.
Tue Dec 8 07:08:05 2020 30.0 F. 27.0 F.
Tue Dec 8 08:08:05 2020 30.0 F. 27.0 F.
Tue Dec 8 09:08:04 2020 32.0 F. 28.9 F.
Tue Dec 8 10:08:05 2020 34.0 F. 30.9 F.
Tue Dec 8 11:08:05 2020 41.0 F. 33.1 F.
Tue Dec 8 12:08:05 2020 44.0 F. 32.0 F.
Tue Dec 8 13:08:05 2020 44.0 F. 32.0 F.
Tue Dec 8 14:08:07 2020 47.0 F. 32.0 F.
Tue Dec 8 15:08:05 2020 50.0 F. 32.0 F.
Tue Dec 8 16:08:05 2020 49.0 F. 33.1 F.
Tue Dec 8 17:08:04 2020 49.0 F. 33.1 F.
Tue Dec 8 18:08:04 2020 39.0 F. 30.0 F.
Tue Dec 8 19:08:05 2020 39.0 F. 30.0 F.
Tue Dec 8 20:08:06 2020 37.0 F. 30.0 F.
Tue Dec 8 21:08:05 2020 31.0 F. 28.0 F.
Tue Dec 8 22:08:06 2020 31.0 F. 28.0 F.
Tue Dec 8 23:08:05 2020 36.0 F. 30.0 F.
Wed Dec 9 00:08:04 2020 34.0 F. 30.0 F.
Wed Dec 9 01:08:04 2020 34.0 F. 30.9 F.
Wed Dec 9 02:08:04 2020 34.0 F. 30.9 F.
Wed Dec 9 03:08:05 2020 37.0 F. 33.1 F.
Wed Dec 9 04:08:05 2020 37.0 F. 33.1 F.
Wed Dec 9 05:08:04 2020 36.0 F. 32.0 F.
Wed Dec 9 06:08:04 2020 36.0 F. 32.0 F.
Wed Dec 9 07:08:05 2020 36.0 F. 32.0 F.
Wed Dec 9 08:08:05 2020 36.0 F. 32.0 F.
Wed Dec 9 09:08:04 2020 38.0 F. 33.1 F.
Wed Dec 9 10:08:05 2020 46.0 F. 36.0 F.
Wed Dec 9 11:08:05 2020 52.0 F. 35.1 F.
Wed Dec 9 12:08:04 2020 59.0 F. 34.0 F.
Wed Dec 9 13:08:04 2020 59.0 F. 34.0 F.
Wed Dec 9 14:08:04 2020 62.0 F. 34.0 F.
Wed Dec 9 15:08:05 2020 64.0 F. 35.1 F.
Wed Dec 9 16:08:04 2020 63.0 F. 37.0 F.
Wed Dec 9 17:08:04 2020 63.0 F. 37.0 F.
Wed Dec 9 18:08:05 2020 50.0 F. 36.0 F.
Wed Dec 9 19:08:04 2020 50.0 F. 36.0 F.
Wed Dec 9 20:08:05 2020 45.0 F. 35.1 F.
Wed Dec 9 21:08:05 2020 43.0 F. 35.1 F.
Wed Dec 9 22:08:06 2020 40.0 F. 34.0 F.
Wed Dec 9 23:08:04 2020 39.0 F. 33.1 F.
Thu Dec 10 00:08:04 2020 39.0 F. 33.1 F.
Thu Dec 10 01:08:04 2020 37.0 F. 32.0 F.
Thu Dec 10 02:08:04 2020 37.0 F. 32.0 F.
Thu Dec 10 03:08:05 2020 35.0 F. 30.9 F.
Thu Dec 10 04:08:04 2020 35.0 F. 30.9 F.
Thu Dec 10 05:08:04 2020 34.0 F. 30.9 F.
Thu Dec 10 06:08:04 2020 34.0 F. 30.9 F.
Thu Dec 10 07:08:04 2020 35.0 F. 32.0 F.
Thu Dec 10 08:08:05 2020 32.0 F. 30.0 F.
Thu Dec 10 09:08:04 2020 34.0 F. 30.9 F.
Thu Dec 10 10:08:05 2020 45.0 F. 39.0 F.
Thu Dec 10 12:08:05 2020 66.0 F. 37.9 F.
Thu Dec 10 13:08:05 2020 66.0 F. 37.9 F.
Thu Dec 10 14:08:05 2020 67.0 F. 37.0 F.
Thu Dec 10 15:08:05 2020 67.0 F. 36.0 F.
Thu Dec 10 16:08:05 2020 67.0 F. 36.0 F.
Thu Dec 10 17:08:05 2020 64.0 F. 37.0 F.
Thu Dec 10 18:08:05 2020 56.0 F. 37.9 F.
Thu Dec 10 19:08:04 2020 50.0 F. 37.9 F.
Thu Dec 10 20:08:04 2020 49.0 F. 37.9 F.
Thu Dec 10 21:08:06 2020 53.0 F. 39.0 F.
Thu Dec 10 22:08:04 2020 50.0 F. 37.9 F.
Thu Dec 10 23:08:04 2020 50.0 F. 37.9 F.
Fri Dec 11 00:08:05 2020 56.0 F. 37.9 F.
Fri Dec 11 01:08:05 2020 54.0 F. 37.0 F.
Fri Dec 11 02:08:04 2020 54.0 F. 37.0 F.
Fri Dec 11 03:08:04 2020 49.0 F. 37.0 F.
Fri Dec 11 04:08:05 2020 48.0 F. 37.0 F.
Fri Dec 11 05:08:04 2020 48.0 F. 37.0 F.
Fri Dec 11 06:08:04 2020 48.0 F. 37.9 F.
Fri Dec 11 07:08:04 2020 48.0 F. 39.0 F.
Fri Dec 11 08:08:05 2020 47.0 F. 39.0 F.
Fri Dec 11 09:08:04 2020 56.0 F. 43.0 F.
Fri Dec 11 10:08:04 2020 59.0 F. 46.0 F.
Fri Dec 11 11:08:05 2020 59.0 F. 46.0 F.
Fri Dec 11 12:08:04 2020 63.0 F. 50.0 F.
Fri Dec 11 13:08:05 2020 65.0 F. 51.1 F.
Fri Dec 11 14:08:05 2020 63.0 F. 51.1 F.
Fri Dec 11 15:08:05 2020 63.0 F. 51.1 F.
Fri Dec 11 16:08:05 2020 62.0 F. 51.1 F.
Fri Dec 11 17:08:05 2020 60.0 F. 51.1 F.
Fri Dec 11 18:08:05 2020 60.0 F. 51.1 F.
Fri Dec 11 19:08:05 2020 56.0 F. 54.0 F.
Fri Dec 11 20:08:05 2020 56.0 F. 53.1 F.
Fri Dec 11 21:08:06 2020 56.0 F. 53.1 F.
Fri Dec 11 22:08:05 2020 56.0 F. 53.1 F.
Fri Dec 11 23:08:04 2020 56.0 F. 53.1 F.
Sat Dec 12 00:08:05 2020 56.0 F. 53.1 F.
Sat Dec 12 01:08:05 2020 57.0 F. 53.1 F.
Sat Dec 12 02:08:04 2020 57.0 F. 54.0 F.
Sat Dec 12 03:08:05 2020 57.0 F. 54.0 F.
Sat Dec 12 04:08:04 2020 56.0 F. 52.0 F.
Sat Dec 12 05:08:05 2020 57.0 F. 52.0 F.
Sat Dec 12 06:08:05 2020 57.0 F. 52.0 F.
Sat Dec 12 07:08:05 2020 50.0 F. 44.1 F.
Sat Dec 12 08:08:04 2020 50.0 F. 44.1 F.
Sat Dec 12 09:08:04 2020 47.0 F. 42.1 F.
Sat Dec 12 10:08:04 2020 46.0 F. 39.9 F.
Sat Dec 12 11:08:04 2020 46.0 F. 37.0 F.
Sat Dec 12 12:08:05 2020 46.0 F. 37.0 F.
Sat Dec 12 13:08:04 2020 45.0 F. 36.0 F.
Sat Dec 12 14:08:08 2020 45.0 F. 36.0 F.
Sat Dec 12 15:08:04 2020 45.0 F. 36.0 F.
Sat Dec 12 16:08:05 2020 45.0 F. 36.0 F.
Sat Dec 12 17:08:04 2020 44.0 F. 36.0 F.
Sat Dec 12 18:08:04 2020 44.0 F. 36.0 F.
Sat Dec 12 19:08:05 2020 45.0 F. 35.1 F.
Sat Dec 12 20:08:05 2020 44.0 F. 35.1 F.
Sat Dec 12 21:08:05 2020 44.0 F. 35.1 F.
Sat Dec 12 22:08:05 2020 43.0 F. 35.1 F.
Sat Dec 12 23:08:05 2020 42.0 F. 35.1 F.
Sun Dec 13 00:08:05 2020 42.0 F. 35.1 F.
Sun Dec 13 01:08:04 2020 41.0 F. 34.0 F.
Sun Dec 13 02:08:05 2020 40.0 F. 33.1 F.
Sun Dec 13 03:08:05 2020 40.0 F. 33.1 F.
Sun Dec 13 04:08:04 2020 39.0 F. 33.1 F.
Sun Dec 13 05:08:05 2020 38.0 F. 33.1 F.
Sun Dec 13 06:08:05 2020 38.0 F. 33.1 F.
Sun Dec 13 07:08:04 2020 39.0 F. 33.1 F.
Sun Dec 13 08:08:05 2020 39.0 F. 33.1 F.
Sun Dec 13 09:08:04 2020 39.0 F. 34.0 F.
Sun Dec 13 10:08:05 2020 39.0 F. 34.0 F.
Sun Dec 13 11:08:05 2020 40.0 F. 33.1 F.
Sun Dec 13 12:08:05 2020 40.0 F. 32.0 F.
Sun Dec 13 13:08:04 2020 40.0 F. 33.1 F.
Sun Dec 13 14:08:05 2020 40.0 F. 33.1 F.
Sun Dec 13 15:08:05 2020 40.0 F. 33.1 F.
Sun Dec 13 16:08:04 2020 40.0 F. 33.1 F.
Sun Dec 13 17:08:05 2020 39.0 F. 32.0 F.
Sun Dec 13 18:08:04 2020 39.0 F. 32.0 F.
Sun Dec 13 19:08:04 2020 39.0 F. 33.1 F.
Sun Dec 13 20:08:05 2020 38.0 F. 32.0 F.
Sun Dec 13 21:08:06 2020 38.0 F. 32.0 F.
Sun Dec 13 22:08:06 2020 38.0 F. 33.1 F.
Sun Dec 13 23:08:04 2020 38.0 F. 33.1 F.
Mon Dec 14 00:08:04 2020 37.0 F. 30.0 F.
Mon Dec 14 01:08:04 2020 37.0 F. 30.0 F.
Mon Dec 14 02:08:05 2020 36.0 F. 30.0 F.
Mon Dec 14 03:08:05 2020 36.0 F. 30.0 F.
Mon Dec 14 04:08:04 2020 35.0 F. 28.9 F.
Mon Dec 14 05:08:05 2020 34.0 F. 26.1 F.
Mon Dec 14 06:08:05 2020 31.0 F. 23.0 F.
Mon Dec 14 07:08:05 2020 31.0 F. 23.0 F.
Mon Dec 14 08:08:05 2020 30.0 F. 23.0 F.
Mon Dec 14 09:08:05 2020 31.0 F. 21.9 F.
Mon Dec 14 10:08:05 2020 33.0 F. 21.9 F.
Mon Dec 14 11:08:04 2020 33.0 F. 21.9 F.
Mon Dec 14 12:08:04 2020 35.0 F. 23.0 F.
Mon Dec 14 13:08:04 2020 39.0 F. 25.0 F.
Mon Dec 14 14:08:05 2020 39.0 F. 24.1 F.
Mon Dec 14 15:08:05 2020 39.0 F. 23.0 F.
Mon Dec 14 16:08:04 2020 39.0 F. 23.0 F.
Mon Dec 14 17:08:05 2020 39.0 F. 23.0 F.
Mon Dec 14 18:08:05 2020 34.0 F. 23.0 F.
Mon Dec 14 19:08:04 2020 32.0 F. 23.0 F.
Mon Dec 14 20:08:05 2020 29.0 F. 23.0 F.
Mon Dec 14 21:08:05 2020 30.0 F. 23.0 F.
Mon Dec 14 22:08:05 2020 30.0 F. 23.0 F.
Mon Dec 14 23:08:04 2020 29.0 F. 23.0 F.
Tue Dec 15 00:08:04 2020 28.0 F. 23.0 F.
Tue Dec 15 01:08:05 2020 26.0 F. 23.0 F.
Tue Dec 15 02:08:04 2020 26.0 F. 23.0 F.
Tue Dec 15 03:08:05 2020 27.0 F. 21.9 F.
Tue Dec 15 04:08:05 2020 26.0 F. 21.9 F.
Tue Dec 15 05:08:04 2020 24.0 F. 21.0 F.
Tue Dec 15 06:08:04 2020 23.0 F. 19.9 F.
Tue Dec 15 07:08:04 2020 23.0 F. 19.9 F.
Tue Dec 15 08:08:06 2020 26.0 F. 21.9 F.
Tue Dec 15 09:08:04 2020 26.0 F. 21.9 F.
Tue Dec 15 10:08:05 2020 28.0 F. 23.0 F.
Tue Dec 15 11:08:04 2020 31.0 F. 24.1 F.
Tue Dec 15 12:08:05 2020 33.0 F. 24.1 F.
Tue Dec 15 13:08:04 2020 34.0 F. 25.0 F.
Tue Dec 15 14:08:04 2020 36.0 F. 25.0 F.
Tue Dec 15 15:08:04 2020 36.0 F. 24.1 F.
Tue Dec 15 16:08:04 2020 36.0 F. 24.1 F.
Tue Dec 15 17:08:04 2020 35.0 F. 25.0 F.
Tue Dec 15 18:08:04 2020 35.0 F. 25.0 F.
Tue Dec 15 19:08:05 2020 35.0 F. 25.0 F.
Tue Dec 15 20:08:05 2020 35.0 F. 25.0 F.
Tue Dec 15 21:08:05 2020 34.0 F. 26.1 F.
Tue Dec 15 22:08:06 2020 34.0 F. 26.1 F.
Tue Dec 15 23:08:04 2020 34.0 F. 26.1 F.
Wed Dec 16 00:08:05 2020 34.0 F. 27.0 F.
Wed Dec 16 01:08:04 2020 33.0 F. 28.0 F.
Wed Dec 16 02:08:05 2020 32.0 F. 30.0 F.
Wed Dec 16 03:08:04 2020 32.0 F. 30.0 F.
Wed Dec 16 04:08:04 2020 32.0 F. 30.0 F.
Wed Dec 16 05:08:04 2020 32.0 F. 30.0 F.
Wed Dec 16 06:08:04 2020 32.0 F. 30.0 F.
Wed Dec 16 07:08:04 2020 31.0 F. 28.9 F.
Wed Dec 16 08:08:05 2020 31.0 F. 28.9 F.
Wed Dec 16 09:08:05 2020 31.0 F. 28.9 F.
Wed Dec 16 10:08:05 2020 32.0 F. 28.9 F.
Wed Dec 16 11:08:05 2020 32.0 F. 28.0 F.
Wed Dec 16 12:08:05 2020 32.0 F. 27.0 F.
Wed Dec 16 13:08:05 2020 33.0 F. 26.1 F.
Wed Dec 16 14:08:04 2020 33.0 F. 26.1 F.
Wed Dec 16 15:08:04 2020 33.0 F. 26.1 F.
Wed Dec 16 16:08:05 2020 34.0 F. 26.1 F.
Wed Dec 16 17:08:05 2020 33.0 F. 25.0 F.
Wed Dec 16 18:08:04 2020 33.0 F. 25.0 F.
Wed Dec 16 19:08:05 2020 29.0 F. 23.0 F.
Wed Dec 16 20:08:05 2020 29.0 F. 23.0 F.
Wed Dec 16 21:08:05 2020 29.0 F. 23.0 F.
Wed Dec 16 22:08:05 2020 27.0 F. 23.0 F.
Wed Dec 16 23:08:04 2020 25.0 F. 21.9 F.
Thu Dec 17 00:08:04 2020 25.0 F. 21.9 F.
Thu Dec 17 01:08:04 2020 24.0 F. 19.9 F.
Thu Dec 17 02:08:05 2020 24.0 F. 19.9 F.
Thu Dec 17 03:08:04 2020 23.0 F. 19.9 F.
Thu Dec 17 04:08:05 2020 22.0 F. 19.0 F.
Thu Dec 17 05:08:04 2020 22.0 F. 19.0 F.
Thu Dec 17 06:08:05 2020 19.0 F. 17.1 F.
Thu Dec 17 07:08:04 2020 19.0 F. 17.1 F.
Thu Dec 17 08:08:05 2020 19.0 F. 16.0 F.
Thu Dec 17 09:08:04 2020 26.0 F. 21.9 F.
Thu Dec 17 10:08:04 2020 30.0 F. 23.0 F.
Thu Dec 17 11:08:05 2020 32.0 F. 24.1 F.
Thu Dec 17 12:08:05 2020 34.0 F. 24.1 F.
Thu Dec 17 13:08:05 2020 36.0 F. 24.1 F.
Thu Dec 17 14:08:05 2020 36.0 F. 24.1 F.
Thu Dec 17 15:08:05 2020 37.0 F. 24.1 F.
Thu Dec 17 16:08:05 2020 36.0 F. 23.0 F.
Thu Dec 17 17:08:05 2020 34.0 F. 21.9 F.
Thu Dec 17 18:08:04 2020 30.0 F. 21.9 F.
Thu Dec 17 19:08:05 2020 28.0 F. 21.9 F.
Thu Dec 17 20:08:05 2020 28.0 F. 21.9 F.
Thu Dec 17 21:08:04 2020 28.0 F. 21.9 F.
Thu Dec 17 22:08:05 2020 27.0 F. 21.9 F.
Thu Dec 17 23:08:05 2020 27.0 F. 21.9 F.
Fri Dec 18 00:08:05 2020 26.0 F. 21.9 F.
Fri Dec 18 01:08:05 2020 25.0 F. 21.0 F.
Fri Dec 18 02:08:04 2020 25.0 F. 21.0 F.
Fri Dec 18 03:08:04 2020 25.0 F. 21.9 F.
Fri Dec 18 04:08:04 2020 25.0 F. 21.9 F.
Fri Dec 18 05:08:05 2020 25.0 F. 21.9 F.
Fri Dec 18 06:08:05 2020 26.0 F. 21.9 F.
Fri Dec 18 07:08:05 2020 25.0 F. 21.9 F.
Fri Dec 18 08:08:04 2020 27.0 F. 23.0 F.
Fri Dec 18 09:08:04 2020 27.0 F. 23.0 F.
Fri Dec 18 10:08:04 2020 37.0 F. 28.9 F.
Fri Dec 18 11:08:05 2020 37.0 F. 28.9 F.
Fri Dec 18 12:08:05 2020 42.0 F. 32.0 F.
Fri Dec 18 13:08:04 2020 43.0 F. 33.1 F.
Fri Dec 18 14:08:05 2020 43.0 F. 33.1 F.
Fri Dec 18 15:08:04 2020 44.0 F. 33.1 F.
Fri Dec 18 16:08:04 2020 44.0 F. 33.1 F.
Fri Dec 18 17:08:05 2020 41.0 F. 33.1 F.
Fri Dec 18 18:08:05 2020 41.0 F. 33.1 F.
Fri Dec 18 19:08:04 2020 41.0 F. 33.1 F.
Fri Dec 18 20:08:05 2020 41.0 F. 32.0 F.
Fri Dec 18 21:08:05 2020 41.0 F. 30.9 F.
Fri Dec 18 22:08:05 2020 41.0 F. 30.9 F.
Fri Dec 18 23:08:05 2020 40.0 F. 30.9 F.
Sat Dec 19 00:08:05 2020 40.0 F. 30.9 F.
Sat Dec 19 01:08:05 2020 40.0 F. 30.9 F.
Sat Dec 19 02:08:04 2020 41.0 F. 30.9 F.
Sat Dec 19 03:08:04 2020 41.0 F. 30.9 F.
Sat Dec 19 04:08:04 2020 42.0 F. 32.0 F.
Sat Dec 19 05:08:05 2020 43.0 F. 32.0 F.
Sat Dec 19 06:08:04 2020 44.0 F. 32.0 F.
Sat Dec 19 07:08:05 2020 44.0 F. 32.0 F.
Sat Dec 19 08:08:06 2020 43.0 F. 35.1 F.
Sat Dec 19 09:08:04 2020 43.0 F. 35.1 F.
Sat Dec 19 10:08:04 2020 43.0 F. 37.9 F.
Sat Dec 19 11:08:05 2020 43.0 F. 37.9 F.
Sat Dec 19 12:08:04 2020 43.0 F. 37.9 F.
Sat Dec 19 13:08:04 2020 43.0 F. 39.0 F.
Sat Dec 19 14:08:04 2020 44.0 F. 39.9 F.
Sat Dec 19 15:08:04 2020 44.0 F. 39.9 F.
Sat Dec 19 16:08:05 2020 43.0 F. 39.0 F.
Sat Dec 19 17:08:04 2020 43.0 F. 39.0 F.
Sat Dec 19 18:08:04 2020 42.0 F. 39.9 F.
Sat Dec 19 19:08:05 2020 42.0 F. 39.9 F.
Sat Dec 19 20:08:05 2020 42.0 F. 39.9 F.
Sat Dec 19 21:08:05 2020 42.0 F. 39.9 F.
Sat Dec 19 22:08:05 2020 42.0 F. 39.9 F.
Sat Dec 19 23:08:05 2020 42.0 F. 39.9 F.
Sun Dec 20 00:08:05 2020 42.0 F. 39.9 F.
Sun Dec 20 01:08:04 2020 42.0 F. 39.9 F.
Sun Dec 20 02:08:05 2020 42.0 F. 39.9 F.
Sun Dec 20 03:08:04 2020 38.0 F. 35.1 F.
Sun Dec 20 04:08:05 2020 37.0 F. 35.1 F.
Sun Dec 20 05:08:04 2020 37.0 F. 34.0 F.
Sun Dec 20 06:08:04 2020 37.0 F. 34.0 F.
Sun Dec 20 07:08:04 2020 37.0 F. 34.0 F.
Sun Dec 20 08:08:04 2020 37.0 F. 33.1 F.
Sun Dec 20 09:08:04 2020 37.0 F. 34.0 F.
Sun Dec 20 10:08:04 2020 38.0 F. 34.0 F.
Sun Dec 20 11:08:05 2020 41.0 F. 34.0 F.
Sun Dec 20 12:08:04 2020 41.0 F. 34.0 F.
Sun Dec 20 13:08:05 2020 48.0 F. 36.0 F.
Sun Dec 20 14:08:04 2020 48.0 F. 36.0 F.
Sun Dec 20 15:08:04 2020 50.0 F. 35.1 F.
Sun Dec 20 16:08:05 2020 48.0 F. 34.0 F.
Sun Dec 20 17:08:05 2020 43.0 F. 32.0 F.
Sun Dec 20 18:08:05 2020 43.0 F. 32.0 F.
Sun Dec 20 19:08:05 2020 40.0 F. 35.1 F.
Sun Dec 20 20:08:05 2020 40.0 F. 35.1 F.
Sun Dec 20 21:08:05 2020 39.0 F. 35.1 F.
Sun Dec 20 22:08:05 2020 39.0 F. 35.1 F.
Sun Dec 20 23:08:05 2020 40.0 F. 35.1 F.
Mon Dec 21 00:08:05 2020 41.0 F. 36.0 F.
Mon Dec 21 01:08:04 2020 41.0 F. 36.0 F.
Mon Dec 21 02:08:04 2020 41.0 F. 37.0 F.
Mon Dec 21 03:08:05 2020 40.0 F. 36.0 F.
Mon Dec 21 04:08:05 2020 40.0 F. 36.0 F.
Mon Dec 21 05:08:05 2020 40.0 F. 36.0 F.
Mon Dec 21 06:08:05 2020 38.0 F. 35.1 F.
Mon Dec 21 07:08:05 2020 38.0 F. 35.1 F.
Mon Dec 21 08:08:05 2020 42.0 F. 35.1 F.
Mon Dec 21 09:08:05 2020 45.0 F. 35.1 F.
Mon Dec 21 10:08:04 2020 45.0 F. 35.1 F.
Mon Dec 21 11:08:05 2020 53.0 F. 35.1 F.
Mon Dec 21 12:08:05 2020 55.0 F. 36.0 F.
Mon Dec 21 13:08:04 2020 59.0 F. 30.0 F.
Mon Dec 21 14:08:05 2020 59.0 F. 30.0 F.
Mon Dec 21 15:08:06 2020 60.0 F. 26.1 F.
Mon Dec 21 16:08:04 2020 59.0 F. 23.0 F.
Mon Dec 21 17:08:04 2020 59.0 F. 23.0 F.
Mon Dec 21 18:08:05 2020 57.0 F. 21.9 F.
Mon Dec 21 19:08:05 2020 52.0 F. 23.0 F.
Mon Dec 21 20:08:06 2020 50.0 F. 23.0 F.
Mon Dec 21 21:08:06 2020 47.0 F. 24.1 F.
Mon Dec 21 22:08:05 2020 48.0 F. 21.9 F.
Mon Dec 21 23:08:05 2020 50.0 F. 21.0 F.
Tue Dec 22 00:08:04 2020 48.0 F. 21.0 F.
Tue Dec 22 01:08:04 2020 48.0 F. 21.0 F.
Tue Dec 22 02:08:05 2020 48.0 F. 21.0 F.
Tue Dec 22 03:08:05 2020 46.0 F. 21.9 F.
Tue Dec 22 04:08:04 2020 44.0 F. 21.9 F.
Tue Dec 22 05:08:04 2020 41.0 F. 21.9 F.
Tue Dec 22 06:08:05 2020 41.0 F. 21.9 F.
Tue Dec 22 07:08:04 2020 35.0 F. 21.9 F.
Tue Dec 22 08:08:05 2020 29.0 F. 21.9 F.
Tue Dec 22 09:08:05 2020 41.0 F. 28.0 F.
Tue Dec 22 10:08:05 2020 44.0 F. 27.0 F.
Tue Dec 22 11:08:45 2020 44.0 F. 27.0 F.
Tue Dec 22 12:10:58 2020 44.0 F. 27.0 F.
Tue Dec 22 13:08:45 2020 44.0 F. 27.0 F.
Tue Dec 22 14:08:45 2020 44.0 F. 27.0 F.
Tue Dec 22 15:09:00 2020 41.0 F. 28.0 F.
Tue Dec 22 16:08:45 2020 44.0 F. 27.0 F.
Tue Dec 22 17:09:05 2020 44.0 F. 27.0 F.
Tue Dec 22 18:08:04 2020 44.0 F. 27.0 F.
Tue Dec 22 19:08:45 2020 50.0 F. 21.0 F.
Tue Dec 22 20:08:45 2020 44.0 F. 27.0 F.
Tue Dec 22 21:08:45 2020 44.0 F. 27.0 F.
Tue Dec 22 22:08:05 2020 44.0 F. 27.0 F.
Tue Dec 22 23:08:05 2020 44.0 F. 27.0 F.
Wed Dec 23 00:08:04 2020 49.0 F. 27.0 F.
Wed Dec 23 01:08:05 2020 49.0 F. 27.0 F.
Wed Dec 23 02:08:04 2020 47.0 F. 27.0 F.
Wed Dec 23 03:08:04 2020 47.0 F. 27.0 F.
Wed Dec 23 04:08:04 2020 48.0 F. 28.0 F.
Wed Dec 23 05:08:05 2020 48.0 F. 28.9 F.
Wed Dec 23 06:08:05 2020 51.0 F. 34.0 F.
Wed Dec 23 07:08:05 2020 52.0 F. 36.0 F.
Wed Dec 23 08:08:05 2020 52.0 F. 36.0 F.
Wed Dec 23 09:08:05 2020 53.0 F. 39.0 F.
Wed Dec 23 10:08:05 2020 53.0 F. 39.0 F.
Wed Dec 23 11:08:04 2020 51.0 F. 46.9 F.
Wed Dec 23 12:08:05 2020 51.0 F. 46.9 F.
Wed Dec 23 13:08:05 2020 51.0 F. 48.0 F.
Wed Dec 23 14:08:04 2020 53.0 F. 50.0 F.
Wed Dec 23 15:08:10 2020 53.0 F. 50.0 F.
Wed Dec 23 16:08:25 2020 54.0 F. 51.1 F.
Wed Dec 23 17:08:05 2020 55.0 F. 52.0 F.
Wed Dec 23 18:08:16 2020 56.0 F. 52.0 F.
Wed Dec 23 19:08:08 2020 57.0 F. 52.0 F.
Wed Dec 23 20:08:06 2020 50.0 F. 48.0 F.
Wed Dec 23 21:08:05 2020 47.0 F. 39.0 F.
Wed Dec 23 22:08:04 2020 47.0 F. 39.0 F.
Wed Dec 23 23:08:04 2020 43.0 F. 28.9 F.
Thu Dec 24 00:08:04 2020 38.0 F. 25.0 F.
Thu Dec 24 01:08:04 2020 30.0 F. 16.0 F.
Thu Dec 24 02:08:04 2020 30.0 F. 17.1 F.
Thu Dec 24 03:08:04 2020 28.0 F. 15.1 F.
Thu Dec 24 04:08:04 2020 27.0 F. 15.1 F.
Thu Dec 24 05:08:04 2020 26.0 F. 16.0 F.
Thu Dec 24 06:08:05 2020 26.0 F. 16.0 F.
Thu Dec 24 07:08:05 2020 27.0 F. 16.0 F.
Thu Dec 24 08:08:04 2020 25.0 F. 12.0 F.
Thu Dec 24 09:08:04 2020 25.0 F. 12.0 F.
Thu Dec 24 10:08:04 2020 25.0 F. 12.0 F.
Thu Dec 24 11:08:05 2020 27.0 F. 12.9 F.
Thu Dec 24 12:08:04 2020 27.0 F. 12.9 F.
Thu Dec 24 13:08:04 2020 26.0 F. 12.9 F.
Thu Dec 24 14:08:04 2020 27.0 F. 12.0 F.
Thu Dec 24 15:08:04 2020 26.0 F. 10.9 F.
Thu Dec 24 16:08:05 2020 25.0 F. 10.0 F.
Thu Dec 24 17:08:05 2020 25.0 F. 10.0 F.
Thu Dec 24 18:08:05 2020 24.0 F. 9.0 F.
Thu Dec 24 19:08:05 2020 24.0 F. 9.0 F.
Thu Dec 24 20:08:04 2020 24.0 F. 7.0 F.
Thu Dec 24 21:08:04 2020 22.0 F. 6.1 F.
Thu Dec 24 22:08:05 2020 20.0 F. 3.9 F.
Thu Dec 24 23:08:04 2020 20.0 F. 3.9 F.
Fri Dec 25 00:08:04 2020 19.0 F. 3.0 F.
Fri Dec 25 01:08:04 2020 19.0 F. 3.0 F.
Fri Dec 25 02:08:04 2020 18.0 F. 1.0 F.
Fri Dec 25 03:08:04 2020 16.0 F. 3.0 F.
Fri Dec 25 04:08:04 2020 15.0 F. 1.9 F.
Fri Dec 25 05:08:05 2020 15.0 F. 1.9 F.
Fri Dec 25 06:08:04 2020 15.0 F. 1.9 F.
Fri Dec 25 07:08:05 2020 14.0 F. 1.9 F.
Fri Dec 25 08:08:04 2020 14.0 F. 3.0 F.
Fri Dec 25 09:08:04 2020 15.0 F. 3.0 F.
Fri Dec 25 10:08:04 2020 15.0 F. 3.0 F.
Fri Dec 25 11:08:05 2020 15.0 F. 3.9 F.
Fri Dec 25 12:08:04 2020 17.0 F. 3.9 F.
Fri Dec 25 13:08:04 2020 20.0 F. 3.9 F.
Fri Dec 25 14:08:05 2020 22.0 F. 5.0 F.
Fri Dec 25 15:08:05 2020 23.0 F. 6.1 F.
Fri Dec 25 16:08:05 2020 23.0 F. 5.0 F.
Fri Dec 25 17:08:05 2020 22.0 F. 7.0 F.
Fri Dec 25 18:08:06 2020 18.0 F. 9.0 F.
Fri Dec 25 19:08:06 2020 18.0 F. 9.0 F.
Fri Dec 25 20:08:05 2020 18.0 F. 9.0 F.
Fri Dec 25 21:08:06 2020 18.0 F. 9.0 F.
Fri Dec 25 22:08:05 2020 19.0 F. 10.0 F.
Fri Dec 25 23:08:05 2020 21.0 F. 10.0 F.
Sat Dec 26 00:08:06 2020 23.0 F. 10.0 F.
Sat Dec 26 01:08:05 2020 24.0 F. 10.0 F.
Sat Dec 26 02:08:04 2020 24.0 F. 10.0 F.
Sat Dec 26 03:08:05 2020 21.0 F. 12.0 F.
Sat Dec 26 04:08:05 2020 21.0 F. 12.0 F.
Sat Dec 26 05:08:04 2020 23.0 F. 14.0 F.
Sat Dec 26 06:08:04 2020 23.0 F. 15.1 F.
Sat Dec 26 07:08:04 2020 23.0 F. 15.1 F.
Sat Dec 26 08:08:04 2020 23.0 F. 15.1 F.
Sat Dec 26 09:08:04 2020 27.0 F. 16.0 F.
Sat Dec 26 10:08:05 2020 31.0 F. 18.0 F.
Sat Dec 26 11:08:05 2020 40.0 F. 19.9 F.
Sat Dec 26 12:08:05 2020 43.0 F. 21.9 F.
Sat Dec 26 13:08:04 2020 46.0 F. 25.0 F.
Sat Dec 26 14:08:05 2020 47.0 F. 25.0 F.
Sat Dec 26 15:08:05 2020 48.0 F. 27.0 F.
Sat Dec 26 16:08:05 2020 47.0 F. 27.0 F.
Sat Dec 26 17:08:05 2020 40.0 F. 26.1 F.
Sat Dec 26 18:08:05 2020 40.0 F. 28.0 F.
Sat Dec 26 19:08:05 2020 37.0 F. 28.0 F.
Sat Dec 26 20:08:06 2020 36.0 F. 28.9 F.
Sat Dec 26 21:08:05 2020 36.0 F. 28.9 F.
Sat Dec 26 22:08:05 2020 36.0 F. 28.9 F.
Sat Dec 26 23:08:05 2020 39.0 F. 30.9 F.
Sun Dec 27 00:08:05 2020 39.0 F. 30.9 F.
Sun Dec 27 01:08:04 2020 40.0 F. 33.1 F.
Sun Dec 27 02:08:05 2020 40.0 F. 33.1 F.
Sun Dec 27 03:08:05 2020 40.0 F. 33.1 F.
Sun Dec 27 04:08:05 2020 39.0 F. 33.1 F.
Sun Dec 27 05:08:04 2020 41.0 F. 33.1 F.
Sun Dec 27 06:08:04 2020 40.0 F. 33.1 F.
Sun Dec 27 07:08:05 2020 40.0 F. 33.1 F.
Sun Dec 27 08:08:05 2020 38.0 F. 32.0 F.
Sun Dec 27 09:08:04 2020 47.0 F. 36.0 F.
Sun Dec 27 10:08:04 2020 47.0 F. 36.0 F.
Sun Dec 27 11:08:04 2020 53.0 F. 39.9 F.
Sun Dec 27 12:08:04 2020 55.0 F. 42.1 F.
Sun Dec 27 13:08:04 2020 55.0 F. 41.0 F.
Sun Dec 27 14:08:04 2020 57.0 F. 39.9 F.
Sun Dec 27 15:08:06 2020 57.0 F. 39.9 F.
Sun Dec 27 16:08:05 2020 56.0 F. 39.0 F.
Sun Dec 27 17:08:05 2020 55.0 F. 39.0 F.
Sun Dec 27 18:08:06 2020 54.0 F. 39.9 F.
Sun Dec 27 19:08:06 2020 54.0 F. 41.0 F.
Sun Dec 27 20:08:05 2020 53.0 F. 42.1 F.
Sun Dec 27 21:08:06 2020 53.0 F. 42.1 F.
Sun Dec 27 22:08:05 2020 51.0 F. 43.0 F.
Sun Dec 27 23:08:05 2020 50.0 F. 42.1 F.
Mon Dec 28 00:08:05 2020 44.0 F. 30.9 F.
Mon Dec 28 01:08:04 2020 41.0 F. 28.9 F.
Mon Dec 28 02:08:05 2020 41.0 F. 28.9 F.
Mon Dec 28 03:08:05 2020 37.0 F. 28.0 F.
Mon Dec 28 04:08:04 2020 36.0 F. 28.0 F.
Mon Dec 28 05:08:05 2020 36.0 F. 28.0 F.
Mon Dec 28 06:08:05 2020 33.0 F. 27.0 F.
Mon Dec 28 07:08:05 2020 33.0 F. 27.0 F.
Mon Dec 28 08:08:05 2020 32.0 F. 26.1 F.
Mon Dec 28 09:08:05 2020 36.0 F. 28.0 F.
Mon Dec 28 10:08:05 2020 36.0 F. 28.0 F.
Mon Dec 28 11:08:05 2020 38.0 F. 27.0 F.
Mon Dec 28 12:08:04 2020 39.0 F. 28.0 F.
Mon Dec 28 13:08:04 2020 38.0 F. 28.0 F.
Mon Dec 28 14:08:04 2020 38.0 F. 28.0 F.
Mon Dec 28 15:08:05 2020 37.0 F. 27.0 F.
Mon Dec 28 16:08:05 2020 36.0 F. 26.1 F.
Mon Dec 28 17:08:04 2020 35.0 F. 26.1 F.
Mon Dec 28 18:08:05 2020 34.0 F. 25.0 F.
Mon Dec 28 19:08:05 2020 34.0 F. 25.0 F.
Mon Dec 28 20:08:05 2020 30.0 F. 24.1 F.
Mon Dec 28 21:08:06 2020 30.0 F. 24.1 F.
Mon Dec 28 22:08:05 2020 30.0 F. 23.0 F.
Mon Dec 28 23:08:05 2020 28.0 F. 21.9 F.
Tue Dec 29 00:08:05 2020 26.0 F. 21.0 F.
Tue Dec 29 01:08:04 2020 27.0 F. 21.9 F.
Tue Dec 29 02:08:04 2020 28.0 F. 21.9 F.
Tue Dec 29 03:08:05 2020 28.0 F. 21.9 F.
Tue Dec 29 04:08:04 2020 26.0 F. 21.0 F.
Tue Dec 29 05:08:05 2020 26.0 F. 21.0 F.
Tue Dec 29 06:08:04 2020 27.0 F. 21.0 F.
Tue Dec 29 07:08:05 2020 27.0 F. 21.0 F.
Tue Dec 29 08:08:05 2020 28.0 F. 21.9 F.
Tue Dec 29 09:08:04 2020 28.0 F. 21.9 F.
Tue Dec 29 10:08:04 2020 32.0 F. 25.0 F.
Tue Dec 29 11:08:04 2020 32.0 F. 25.0 F.
Tue Dec 29 12:08:04 2020 35.0 F. 24.1 F.
Tue Dec 29 13:08:05 2020 35.0 F. 24.1 F.
Tue Dec 29 14:08:04 2020 38.0 F. 26.1 F.
Tue Dec 29 15:08:05 2020 39.0 F. 26.1 F.
Tue Dec 29 16:08:05 2020 39.0 F. 27.0 F.
Tue Dec 29 17:08:05 2020 39.0 F. 28.0 F.
Tue Dec 29 18:08:05 2020 40.0 F. 28.9 F.
Tue Dec 29 19:08:05 2020 40.0 F. 28.9 F.
Tue Dec 29 20:08:05 2020 43.0 F. 28.9 F.
Tue Dec 29 21:08:05 2020 43.0 F. 28.9 F.
Tue Dec 29 22:08:06 2020 43.0 F. 30.0 F.
Tue Dec 29 23:08:05 2020 44.0 F. 30.9 F.
Wed Dec 30 00:08:05 2020 44.0 F. 30.9 F.
Wed Dec 30 01:08:04 2020 44.0 F. 30.9 F.
Wed Dec 30 02:08:05 2020 47.0 F. 36.0 F.
Wed Dec 30 03:08:04 2020 49.0 F. 37.9 F.
Wed Dec 30 04:08:04 2020 53.0 F. 43.0 F.
Wed Dec 30 05:08:05 2020 53.0 F. 45.0 F.
Wed Dec 30 06:08:04 2020 49.0 F. 46.9 F.
Wed Dec 30 07:08:04 2020 48.0 F. 46.0 F.
Wed Dec 30 08:08:04 2020 48.0 F. 46.0 F.
Wed Dec 30 09:08:04 2020 48.0 F. 46.0 F.
Wed Dec 30 10:08:04 2020 50.0 F. 48.9 F.
Wed Dec 30 11:08:05 2020 51.0 F. 48.9 F.
Wed Dec 30 12:08:06 2020 51.0 F. 48.0 F.
Wed Dec 30 13:08:04 2020 51.0 F. 48.0 F.
Wed Dec 30 14:08:04 2020 42.0 F. 37.9 F.
Wed Dec 30 15:08:04 2020 42.0 F. 37.9 F.
Wed Dec 30 16:08:04 2020 39.0 F. 35.1 F.
Wed Dec 30 17:08:05 2020 39.0 F. 35.1 F.
Wed Dec 30 18:08:04 2020 37.0 F. 33.1 F.
Wed Dec 30 19:08:05 2020 36.0 F. 33.1 F.
Wed Dec 30 20:08:05 2020 34.0 F. 32.0 F.
Wed Dec 30 21:08:05 2020 34.0 F. 32.0 F.
Wed Dec 30 22:08:05 2020 34.0 F. 32.0 F.
Wed Dec 30 23:08:06 2020 34.0 F. 30.9 F.
Thu Dec 31 00:08:05 2020 34.0 F. 28.9 F.
Thu Dec 31 01:08:04 2020 33.0 F. 26.1 F.
Thu Dec 31 02:08:05 2020 32.0 F. 26.1 F.
Thu Dec 31 03:08:04 2020 32.0 F. 26.1 F.
Thu Dec 31 04:08:05 2020 32.0 F. 26.1 F.
Thu Dec 31 05:08:04 2020 31.0 F. 24.1 F.
Thu Dec 31 06:08:04 2020 30.0 F. 24.1 F.
Thu Dec 31 07:08:04 2020 30.0 F. 23.0 F.
Thu Dec 31 08:08:04 2020 30.0 F. 23.0 F.
Thu Dec 31 09:08:05 2020 30.0 F. 23.0 F.
Thu Dec 31 10:08:04 2020 30.0 F. 23.0 F.
Thu Dec 31 11:08:04 2020 30.0 F. 23.0 F.
Thu Dec 31 12:08:05 2020 31.0 F. 25.0 F.
Thu Dec 31 13:08:04 2020 31.0 F. 25.0 F.
Thu Dec 31 14:08:04 2020 32.0 F. 25.0 F.
Thu Dec 31 15:08:05 2020 32.0 F. 25.0 F.
Thu Dec 31 16:08:05 2020 32.0 F. 25.0 F.
Thu Dec 31 17:08:04 2020 32.0 F. 25.0 F.
Thu Dec 31 18:08:04 2020 31.0 F. 25.0 F.
Thu Dec 31 19:08:05 2020 31.0 F. 25.0 F.
Thu Dec 31 20:08:05 2020 31.0 F. 25.0 F.
Thu Dec 31 21:08:04 2020 31.0 F. 25.0 F.
Thu Dec 31 22:08:05 2020 31.0 F. 26.1 F.
Thu Dec 31 23:08:05 2020 31.0 F. 26.1 F.
Fri Jan 1 00:08:04 2021 31.0 F. 27.0 F.
Fri Jan 1 01:08:05 2021 31.0 F. 28.0 F.
Fri Jan 1 02:08:05 2021 32.0 F. 28.9 F.
Fri Jan 1 03:08:04 2021 32.0 F. 30.0 F.
Fri Jan 1 04:08:04 2021 33.0 F. 30.0 F.
Fri Jan 1 05:08:04 2021 33.0 F. 30.9 F.
Fri Jan 1 06:08:04 2021 34.0 F. 30.9 F.
Fri Jan 1 07:08:04 2021 34.0 F. 30.9 F.
Fri Jan 1 08:08:05 2021 35.0 F. 33.1 F.
Fri Jan 1 09:08:04 2021 35.0 F. 33.1 F.
Fri Jan 1 10:08:04 2021 38.0 F. 36.0 F.
Fri Jan 1 11:08:05 2021 38.0 F. 36.0 F.
Fri Jan 1 12:08:05 2021 38.0 F. 36.0 F.
Fri Jan 1 13:08:04 2021 38.0 F. 36.0 F.
Fri Jan 1 14:08:10 2021 44.0 F. 41.0 F.
Fri Jan 1 15:08:04 2021 43.0 F. 41.0 F.
Fri Jan 1 16:08:04 2021 43.0 F. 41.0 F.
Fri Jan 1 17:08:05 2021 45.0 F. 39.9 F.
Fri Jan 1 18:08:05 2021 44.0 F. 39.0 F.
Fri Jan 1 19:08:06 2021 41.0 F. 34.0 F.
Fri Jan 1 20:08:05 2021 39.0 F. 33.1 F.
Fri Jan 1 21:08:04 2021 37.0 F. 30.9 F.
Fri Jan 1 22:08:06 2021 37.0 F. 30.0 F.
Fri Jan 1 23:08:06 2021 37.0 F. 28.9 F.
Sat Jan 2 00:08:05 2021 37.0 F. 28.9 F.
Sat Jan 2 01:08:05 2021 36.0 F. 28.9 F.
Sat Jan 2 02:08:05 2021 36.0 F. 28.9 F.
Sat Jan 2 03:08:05 2021 36.0 F. 30.0 F.
Sat Jan 2 04:08:04 2021 35.0 F. 30.0 F.
Sat Jan 2 05:08:04 2021 35.0 F. 30.0 F.
Sat Jan 2 06:08:05 2021 35.0 F. 30.0 F.
Sat Jan 2 07:08:05 2021 34.0 F. 30.0 F.
Sat Jan 2 08:08:05 2021 34.0 F. 30.0 F.
Sat Jan 2 09:08:04 2021 34.0 F. 30.9 F.
Sat Jan 2 10:08:05 2021 34.0 F. 30.9 F.
Sat Jan 2 11:08:05 2021 35.0 F. 30.9 F.
Sat Jan 2 12:08:05 2021 36.0 F. 30.9 F.
Sat Jan 2 13:08:04 2021 37.0 F. 30.9 F.
Sat Jan 2 14:08:05 2021 37.0 F. 30.9 F.
Sat Jan 2 15:08:04 2021 38.0 F. 30.9 F.
Sat Jan 2 16:08:05 2021 38.0 F. 30.9 F.
Sat Jan 2 17:08:05 2021 37.0 F. 30.9 F.
Sat Jan 2 18:08:05 2021 37.0 F. 30.9 F.
Sat Jan 2 19:08:05 2021 36.0 F. 30.9 F.
Sat Jan 2 20:08:05 2021 36.0 F. 30.9 F.
Sat Jan 2 21:08:05 2021 36.0 F. 30.9 F.
Sat Jan 2 22:08:06 2021 36.0 F. 30.9 F.
Sat Jan 2 23:08:05 2021 35.0 F. 30.9 F.
Sun Jan 3 00:08:05 2021 35.0 F. 30.9 F.
Sun Jan 3 01:08:04 2021 35.0 F. 32.0 F.
Sun Jan 3 02:08:04 2021 35.0 F. 32.0 F.
Sun Jan 3 03:08:04 2021 35.0 F. 32.0 F.
Sun Jan 3 04:08:05 2021 35.0 F. 30.9 F.
Sun Jan 3 05:08:05 2021 35.0 F. 30.9 F.
Sun Jan 3 06:08:04 2021 35.0 F. 30.9 F.
Sun Jan 3 07:08:05 2021 35.0 F. 30.9 F.
Sun Jan 3 08:08:05 2021 34.0 F. 28.9 F.
Sun Jan 3 09:08:04 2021 36.0 F. 28.0 F.
Sun Jan 3 10:08:04 2021 37.0 F. 27.0 F.
Sun Jan 3 11:08:04 2021 37.0 F. 27.0 F.
Sun Jan 3 12:08:05 2021 39.0 F. 28.0 F.
Sun Jan 3 13:08:05 2021 41.0 F. 24.1 F.
Sun Jan 3 14:08:05 2021 45.0 F. 30.0 F.
Sun Jan 3 15:08:06 2021 45.0 F. 30.0 F.
Sun Jan 3 16:08:04 2021 45.0 F. 30.0 F.
Sun Jan 3 17:08:04 2021 44.0 F. 30.9 F.
Sun Jan 3 18:08:05 2021 36.0 F. 28.0 F.
Sun Jan 3 19:08:06 2021 34.0 F. 28.0 F.
Sun Jan 3 20:08:06 2021 33.0 F. 28.9 F.
Sun Jan 3 21:08:05 2021 30.0 F. 27.0 F.
Sun Jan 3 22:08:06 2021 30.0 F. 28.0 F.
Sun Jan 3 23:08:05 2021 29.0 F. 27.0 F.
Mon Jan 4 00:08:05 2021 29.0 F. 27.0 F.
Mon Jan 4 01:08:04 2021 29.0 F. 27.0 F.
Mon Jan 4 02:08:04 2021 29.0 F. 27.0 F.
Mon Jan 4 03:08:05 2021 28.0 F. 26.1 F.
Mon Jan 4 04:08:05 2021 28.0 F. 26.1 F.
Mon Jan 4 05:08:04 2021 28.0 F. 26.1 F.
Mon Jan 4 06:08:04 2021 28.0 F. 26.1 F.
Mon Jan 4 07:08:05 2021 27.0 F. 25.0 F.
Mon Jan 4 08:08:04 2021 27.0 F. 25.0 F.
Mon Jan 4 09:08:05 2021 30.0 F. 28.9 F.
Mon Jan 4 10:08:05 2021 35.0 F. 33.1 F.
Mon Jan 4 11:08:05 2021 42.0 F. 36.0 F.
Mon Jan 4 12:08:04 2021 47.0 F. 37.0 F.
Mon Jan 4 13:08:04 2021 48.0 F. 37.9 F.
Mon Jan 4 14:08:05 2021 50.0 F. 37.9 F.
Mon Jan 4 15:08:04 2021 49.0 F. 39.0 F.
Mon Jan 4 16:08:04 2021 48.0 F. 37.9 F.
Mon Jan 4 17:08:04 2021 45.0 F. 39.0 F.
Mon Jan 4 18:08:04 2021 44.0 F. 37.9 F.
Mon Jan 4 19:08:04 2021 44.0 F. 37.9 F.
Mon Jan 4 20:08:05 2021 41.0 F. 37.9 F.
Mon Jan 4 21:08:05 2021 41.0 F. 37.0 F.
Mon Jan 4 22:08:05 2021 41.0 F. 37.0 F.
Mon Jan 4 23:08:04 2021 39.0 F. 35.1 F.
Tue Jan 5 00:08:05 2021 37.0 F. 33.1 F.
Tue Jan 5 01:08:04 2021 37.0 F. 30.9 F.
Tue Jan 5 02:08:05 2021 37.0 F. 30.9 F.
Tue Jan 5 03:08:04 2021 37.0 F. 30.9 F.
Tue Jan 5 04:08:04 2021 38.0 F. 32.0 F.
Tue Jan 5 05:08:05 2021 37.0 F. 32.0 F.
Tue Jan 5 06:08:04 2021 37.0 F. 32.0 F.
Tue Jan 5 07:08:05 2021 35.0 F. 30.9 F.
Tue Jan 5 08:08:05 2021 35.0 F. 30.9 F.
Tue Jan 5 09:08:04 2021 33.0 F. 30.0 F.
Tue Jan 5 10:08:04 2021 37.0 F. 32.0 F.
Tue Jan 5 11:08:05 2021 41.0 F. 33.1 F.
Tue Jan 5 12:08:05 2021 45.0 F. 34.0 F.
Tue Jan 5 13:08:05 2021 45.0 F. 34.0 F.
Tue Jan 5 14:08:04 2021 48.0 F. 34.0 F.
Tue Jan 5 15:08:04 2021 50.0 F. 33.1 F.
Tue Jan 5 16:08:05 2021 50.0 F. 33.1 F.
Tue Jan 5 17:08:04 2021 47.0 F. 30.9 F.
Tue Jan 5 18:08:04 2021 47.0 F. 30.9 F.
Tue Jan 5 19:08:04 2021 38.0 F. 30.9 F.
Tue Jan 5 20:08:04 2021 38.0 F. 30.9 F.
Tue Jan 5 21:08:05 2021 31.0 F. 27.0 F.
Tue Jan 5 22:08:05 2021 32.0 F. 28.0 F.
Tue Jan 5 23:08:04 2021 32.0 F. 28.0 F.
Wed Jan 6 00:08:04 2021 30.0 F. 27.0 F.
Wed Jan 6 01:08:04 2021 29.0 F. 27.0 F.
Wed Jan 6 02:08:05 2021 28.0 F. 26.1 F.
Wed Jan 6 03:08:04 2021 28.0 F. 25.0 F.
Wed Jan 6 04:08:05 2021 30.0 F. 28.0 F.
Wed Jan 6 05:08:04 2021 30.0 F. 27.0 F.
Wed Jan 6 06:08:05 2021 30.0 F. 27.0 F.
Wed Jan 6 07:08:05 2021 29.0 F. 27.0 F.
Wed Jan 6 08:08:04 2021 29.0 F. 27.0 F.
Wed Jan 6 09:08:05 2021 31.0 F. 28.0 F.
Wed Jan 6 10:08:04 2021 33.0 F. 28.9 F.
Wed Jan 6 11:08:05 2021 38.0 F. 30.9 F.
Wed Jan 6 12:08:05 2021 40.0 F. 32.0 F.
Wed Jan 6 13:08:04 2021 42.0 F. 32.0 F.
Wed Jan 6 14:08:04 2021 44.0 F. 32.0 F.
Wed Jan 6 15:08:04 2021 44.0 F. 32.0 F.
Wed Jan 6 16:08:05 2021 43.0 F. 32.0 F.
Wed Jan 6 17:08:05 2021 40.0 F. 30.9 F.
Wed Jan 6 18:08:05 2021 39.0 F. 30.9 F.
Wed Jan 6 19:08:05 2021 39.0 F. 30.9 F.
Wed Jan 6 20:08:04 2021 38.0 F. 30.0 F.
Wed Jan 6 21:08:04 2021 36.0 F. 28.9 F.
Wed Jan 6 22:08:04 2021 35.0 F. 28.9 F.
Wed Jan 6 23:08:04 2021 35.0 F. 28.9 F.
Thu Jan 7 00:08:05 2021 34.0 F. 28.0 F.
Thu Jan 7 01:08:05 2021 34.0 F. 28.0 F.
Thu Jan 7 02:08:04 2021 33.0 F. 28.0 F.
Thu Jan 7 03:08:05 2021 33.0 F. 28.0 F.
Thu Jan 7 04:08:05 2021 32.0 F. 27.0 F.
Thu Jan 7 05:08:04 2021 32.0 F. 27.0 F.
Thu Jan 7 06:08:04 2021 32.0 F. 27.0 F.
Thu Jan 7 07:08:05 2021 33.0 F. 26.1 F.
Thu Jan 7 08:08:05 2021 33.0 F. 26.1 F.
Thu Jan 7 09:08:04 2021 33.0 F. 26.1 F.
Thu Jan 7 10:08:05 2021 33.0 F. 26.1 F.
Thu Jan 7 11:08:05 2021 35.0 F. 27.0 F.
Thu Jan 7 12:08:04 2021 37.0 F. 28.0 F.
Thu Jan 7 13:08:04 2021 37.0 F. 28.0 F.
Thu Jan 7 14:08:04 2021 37.0 F. 28.0 F.
Thu Jan 7 15:08:05 2021 38.0 F. 28.0 F.
Thu Jan 7 16:08:04 2021 38.0 F. 28.9 F.
Thu Jan 7 17:08:05 2021 38.0 F. 28.0 F.
Thu Jan 7 18:08:04 2021 38.0 F. 28.0 F.
Thu Jan 7 19:08:04 2021 37.0 F. 28.9 F.
Thu Jan 7 20:08:04 2021 37.0 F. 28.9 F.
Thu Jan 7 21:08:04 2021 37.0 F. 28.0 F.
Thu Jan 7 22:08:04 2021 37.0 F. 28.0 F.
Thu Jan 7 23:08:05 2021 35.0 F. 27.0 F.
Fri Jan 8 00:08:05 2021 34.0 F. 28.0 F.
Fri Jan 8 01:08:05 2021 34.0 F. 28.0 F.
Fri Jan 8 02:08:05 2021 34.0 F. 28.9 F.
Fri Jan 8 03:08:04 2021 33.0 F. 27.0 F.
Fri Jan 8 04:08:05 2021 33.0 F. 26.1 F.
Fri Jan 8 05:08:04 2021 34.0 F. 27.0 F.
Fri Jan 8 06:08:05 2021 34.0 F. 27.0 F.
Fri Jan 8 07:08:05 2021 34.0 F. 27.0 F.
Fri Jan 8 08:08:05 2021 34.0 F. 27.0 F.
Fri Jan 8 09:08:04 2021 34.0 F. 27.0 F.
Fri Jan 8 10:08:05 2021 35.0 F. 28.0 F.
Fri Jan 8 11:08:04 2021 35.0 F. 28.0 F.
Fri Jan 8 12:08:04 2021 36.0 F. 28.0 F.
Fri Jan 8 13:08:04 2021 36.0 F. 26.1 F.
Fri Jan 8 14:08:05 2021 35.0 F. 24.1 F.
Fri Jan 8 15:08:04 2021 35.0 F. 25.0 F.
Fri Jan 8 16:08:05 2021 35.0 F. 25.0 F.
Fri Jan 8 17:08:05 2021 35.0 F. 24.1 F.
Fri Jan 8 18:08:05 2021 34.0 F. 26.1 F.
Fri Jan 8 19:08:05 2021 34.0 F. 26.1 F.
Fri Jan 8 20:08:05 2021 34.0 F. 28.0 F.
Fri Jan 8 21:08:05 2021 34.0 F. 28.0 F.
Fri Jan 8 22:08:04 2021 34.0 F. 28.0 F.
Fri Jan 8 23:08:04 2021 33.0 F. 27.0 F.
Sat Jan 9 00:08:05 2021 33.0 F. 27.0 F.
Sat Jan 9 01:08:05 2021 33.0 F. 27.0 F.
Sat Jan 9 02:08:04 2021 33.0 F. 26.1 F.
Sat Jan 9 03:08:04 2021 33.0 F. 26.1 F.
Sat Jan 9 04:08:05 2021 33.0 F. 26.1 F.
Sat Jan 9 05:08:05 2021 33.0 F. 26.1 F.
Sat Jan 9 06:08:05 2021 33.0 F. 26.1 F.
Sat Jan 9 07:08:04 2021 32.0 F. 26.1 F.
Sat Jan 9 08:08:04 2021 32.0 F. 26.1 F.
Sat Jan 9 09:08:04 2021 33.0 F. 26.1 F.
Sat Jan 9 10:08:05 2021 34.0 F. 26.1 F.
Sat Jan 9 11:08:04 2021 34.0 F. 27.0 F.
Sat Jan 9 12:08:05 2021 34.0 F. 26.1 F.
Sat Jan 9 13:08:05 2021 34.0 F. 25.0 F.
Sat Jan 9 14:08:04 2021 34.0 F. 25.0 F.
Sat Jan 9 15:08:05 2021 34.0 F. 25.0 F.
Sat Jan 9 16:08:05 2021 34.0 F. 25.0 F.
Sat Jan 9 17:08:04 2021 33.0 F. 24.1 F.
Sat Jan 9 18:08:04 2021 32.0 F. 24.1 F.
Sat Jan 9 19:08:05 2021 32.0 F. 24.1 F.
Sat Jan 9 20:08:05 2021 32.0 F. 24.1 F.
Sat Jan 9 21:08:05 2021 32.0 F. 24.1 F.
Sat Jan 9 22:08:04 2021 31.0 F. 25.0 F.
Sat Jan 9 23:08:05 2021 31.0 F. 24.1 F.
Sun Jan 10 00:08:04 2021 31.0 F. 24.1 F.
Sun Jan 10 01:08:04 2021 31.0 F. 23.0 F.
Sun Jan 10 02:08:04 2021 30.0 F. 23.0 F.
Sun Jan 10 03:08:04 2021 30.0 F. 23.0 F.
Sun Jan 10 04:08:04 2021 30.0 F. 23.0 F.
Sun Jan 10 05:08:05 2021 30.0 F. 23.0 F.
Sun Jan 10 06:08:05 2021 30.0 F. 23.0 F.
Sun Jan 10 07:08:04 2021 30.0 F. 23.0 F.
Sun Jan 10 08:08:05 2021 30.0 F. 23.0 F.
Sun Jan 10 09:08:05 2021 30.0 F. 23.0 F.
Sun Jan 10 10:08:05 2021 30.0 F. 21.9 F.
Sun Jan 10 11:08:04 2021 30.0 F. 21.9 F.
Sun Jan 10 12:08:04 2021 30.0 F. 23.0 F.
Sun Jan 10 13:08:05 2021 30.0 F. 24.1 F.
Sun Jan 10 14:08:04 2021 30.0 F. 23.0 F.
Sun Jan 10 15:08:05 2021 30.0 F. 23.0 F.
Sun Jan 10 16:08:05 2021 30.0 F. 23.0 F.
Sun Jan 10 17:08:04 2021 30.0 F. 21.9 F.
Sun Jan 10 18:08:05 2021 30.0 F. 21.9 F.
Sun Jan 10 19:08:05 2021 30.0 F. 21.9 F.
Sun Jan 10 20:08:05 2021 29.0 F. 21.0 F.
Sun Jan 10 21:08:05 2021 29.0 F. 19.0 F.
Sun Jan 10 22:08:05 2021 29.0 F. 19.0 F.
Sun Jan 10 23:08:06 2021 29.0 F. 19.0 F.
Mon Jan 11 00:08:04 2021 29.0 F. 19.0 F.
Mon Jan 11 01:08:05 2021 28.0 F. 19.9 F.
Mon Jan 11 02:08:05 2021 28.0 F. 19.9 F.
Mon Jan 11 03:08:04 2021 28.0 F. 19.9 F.
Mon Jan 11 04:08:05 2021 28.0 F. 21.0 F.
Mon Jan 11 05:08:05 2021 28.0 F. 21.0 F.
Mon Jan 11 06:08:05 2021 28.0 F. 21.0 F.
Mon Jan 11 07:08:05 2021 28.0 F. 21.0 F.
Mon Jan 11 08:08:05 2021 28.0 F. 21.0 F.
Mon Jan 11 09:08:04 2021 28.0 F. 21.0 F.
Mon Jan 11 10:08:05 2021 28.0 F. 21.0 F.
Mon Jan 11 11:08:04 2021 29.0 F. 21.0 F.
Mon Jan 11 12:08:04 2021 28.0 F. 21.0 F.
Mon Jan 11 13:08:04 2021 29.0 F. 21.0 F.
Mon Jan 11 14:08:05 2021 29.0 F. 21.0 F.
Mon Jan 11 15:08:04 2021 29.0 F. 21.0 F.
Mon Jan 11 16:08:04 2021 30.0 F. 21.0 F.
Mon Jan 11 17:08:05 2021 30.0 F. 21.0 F.
Mon Jan 11 18:08:05 2021 27.0 F. 19.0 F.
Mon Jan 11 19:08:04 2021 23.0 F. 18.0 F.
Mon Jan 11 20:08:05 2021 22.0 F. 18.0 F.
Mon Jan 11 21:08:05 2021 20.0 F. 18.0 F.
Mon Jan 11 22:08:05 2021 20.0 F. 18.0 F.
Mon Jan 11 23:08:05 2021 20.0 F. 16.0 F.
Tue Jan 12 00:08:04 2021 20.0 F. 17.1 F.
Tue Jan 12 01:08:04 2021 20.0 F. 17.1 F.
Tue Jan 12 02:08:04 2021 21.0 F. 17.1 F.
Tue Jan 12 03:08:05 2021 20.0 F. 17.1 F.
Tue Jan 12 04:08:05 2021 20.0 F. 16.0 F.
Tue Jan 12 05:08:05 2021 21.0 F. 17.1 F.
Tue Jan 12 06:08:05 2021 21.0 F. 18.0 F.
Tue Jan 12 07:08:05 2021 21.0 F. 18.0 F.
Tue Jan 12 08:08:04 2021 21.0 F. 18.0 F.
Tue Jan 12 09:08:05 2021 28.0 F. 24.1 F.
Tue Jan 12 10:08:04 2021 28.0 F. 24.1 F.
Tue Jan 12 11:08:05 2021 36.0 F. 27.0 F.
Tue Jan 12 12:08:04 2021 36.0 F. 27.0 F.
Tue Jan 12 13:08:05 2021 40.0 F. 28.9 F.
Tue Jan 12 14:08:04 2021 42.0 F. 28.9 F.
Tue Jan 12 15:08:04 2021 46.0 F. 30.0 F.
Tue Jan 12 16:08:04 2021 44.0 F. 30.0 F.
Tue Jan 12 17:08:05 2021 44.0 F. 30.0 F.
Tue Jan 12 18:08:04 2021 40.0 F. 30.0 F.
Tue Jan 12 19:08:04 2021 37.0 F. 30.0 F.
Tue Jan 12 20:08:05 2021 36.0 F. 30.0 F.
Tue Jan 12 21:08:04 2021 36.0 F. 30.0 F.
Tue Jan 12 22:08:04 2021 33.0 F. 28.9 F.
Tue Jan 12 23:08:04 2021 33.0 F. 28.9 F.
Wed Jan 13 00:08:04 2021 31.0 F. 27.0 F.
Wed Jan 13 01:08:05 2021 30.0 F. 26.1 F.
Wed Jan 13 02:08:05 2021 30.0 F. 26.1 F.
Wed Jan 13 03:08:05 2021 29.0 F. 25.0 F.
Wed Jan 13 04:08:05 2021 30.0 F. 26.1 F.
Wed Jan 13 05:08:05 2021 29.0 F. 25.0 F.
Wed Jan 13 06:08:04 2021 28.0 F. 24.1 F.
Wed Jan 13 07:08:04 2021 28.0 F. 24.1 F.
Wed Jan 13 08:08:05 2021 28.0 F. 24.1 F.
Wed Jan 13 09:08:05 2021 29.0 F. 25.0 F.
Wed Jan 13 10:08:04 2021 39.0 F. 30.0 F.
Wed Jan 13 11:08:04 2021 43.0 F. 30.0 F.
Wed Jan 13 12:08:05 2021 43.0 F. 30.0 F.
Wed Jan 13 13:08:04 2021 48.0 F. 30.9 F.
Wed Jan 13 14:08:05 2021 49.0 F. 30.0 F.
Wed Jan 13 15:08:04 2021 49.0 F. 30.0 F.
Wed Jan 13 16:08:04 2021 46.0 F. 30.0 F.
Wed Jan 13 17:08:04 2021 46.0 F. 30.0 F.
Wed Jan 13 18:08:05 2021 44.0 F. 30.0 F.
Wed Jan 13 19:08:05 2021 43.0 F. 30.9 F.
Wed Jan 13 20:08:04 2021 43.0 F. 32.0 F.
Wed Jan 13 21:08:05 2021 42.0 F. 30.9 F.
Wed Jan 13 22:08:04 2021 42.0 F. 30.9 F.
Wed Jan 13 23:08:04 2021 41.0 F. 30.9 F.
Thu Jan 14 00:08:05 2021 41.0 F. 30.9 F.
Thu Jan 14 01:08:04 2021 40.0 F. 30.9 F.
Thu Jan 14 02:08:05 2021 39.0 F. 32.0 F.
Thu Jan 14 03:08:05 2021 40.0 F. 33.1 F.
Thu Jan 14 04:08:05 2021 38.0 F. 32.0 F.
Thu Jan 14 05:08:04 2021 37.0 F. 32.0 F.
Thu Jan 14 06:08:04 2021 37.0 F. 32.0 F.
Thu Jan 14 07:08:04 2021 37.0 F. 32.0 F.
Thu Jan 14 08:08:05 2021 37.0 F. 32.0 F.
Thu Jan 14 09:08:05 2021 42.0 F. 34.0 F.
Thu Jan 14 10:08:04 2021 46.0 F. 34.0 F.
Thu Jan 14 11:08:04 2021 50.0 F. 35.1 F.
Thu Jan 14 12:08:04 2021 52.0 F. 36.0 F.
Thu Jan 14 13:08:04 2021 53.0 F. 36.0 F.
Thu Jan 14 14:08:04 2021 53.0 F. 36.0 F.
Thu Jan 14 15:08:05 2021 51.0 F. 35.1 F.
Thu Jan 14 16:08:05 2021 50.0 F. 36.0 F.
Thu Jan 14 17:08:04 2021 50.0 F. 36.0 F.
Thu Jan 14 18:08:04 2021 47.0 F. 37.0 F.
Thu Jan 14 19:08:05 2021 42.0 F. 36.0 F.
Thu Jan 14 20:08:04 2021 42.0 F. 36.0 F.
Thu Jan 14 21:08:05 2021 42.0 F. 35.1 F.
Thu Jan 14 22:08:04 2021 41.0 F. 33.1 F.
Thu Jan 14 23:08:05 2021 39.0 F. 32.0 F.
Fri Jan 15 00:08:05 2021 37.0 F. 28.9 F.
Fri Jan 15 01:08:04 2021 35.0 F. 27.0 F.
Fri Jan 15 02:08:05 2021 35.0 F. 27.0 F.
Fri Jan 15 03:08:05 2021 34.0 F. 27.0 F.
Fri Jan 15 04:08:04 2021 34.0 F. 26.1 F.
Fri Jan 15 05:08:06 2021 34.0 F. 24.1 F.
Fri Jan 15 06:08:04 2021 34.0 F. 23.0 F.
Fri Jan 15 07:08:04 2021 34.0 F. 23.0 F.
Fri Jan 15 08:08:04 2021 35.0 F. 21.9 F.
Fri Jan 15 09:08:04 2021 35.0 F. 21.9 F.
Fri Jan 15 10:08:04 2021 38.0 F. 23.0 F.
Fri Jan 15 11:08:05 2021 41.0 F. 23.0 F.
Fri Jan 15 12:08:05 2021 40.0 F. 21.9 F.
Fri Jan 15 13:08:05 2021 37.0 F. 25.0 F.
Fri Jan 15 14:08:05 2021 37.0 F. 25.0 F.
Fri Jan 15 15:08:05 2021 35.0 F. 28.0 F.
Fri Jan 15 16:08:04 2021 34.0 F. 30.0 F.
Fri Jan 15 17:08:05 2021 34.0 F. 30.0 F.
Fri Jan 15 18:08:04 2021 33.0 F. 30.0 F.
Fri Jan 15 19:08:04 2021 33.0 F. 30.0 F.
Fri Jan 15 20:08:04 2021 34.0 F. 30.0 F.
Fri Jan 15 21:08:04 2021 34.0 F. 30.0 F.
Fri Jan 15 22:08:04 2021 34.0 F. 30.0 F.
Fri Jan 15 23:08:05 2021 34.0 F. 30.0 F.
Sat Jan 16 00:08:05 2021 34.0 F. 30.0 F.
Sat Jan 16 01:08:04 2021 34.0 F. 30.0 F.
Sat Jan 16 02:08:04 2021 34.0 F. 30.0 F.
Sat Jan 16 03:08:04 2021 34.0 F. 28.9 F.
Sat Jan 16 04:08:05 2021 34.0 F. 30.0 F.
Sat Jan 16 05:08:05 2021 34.0 F. 28.9 F.
Sat Jan 16 06:08:05 2021 34.0 F. 28.9 F.
Sat Jan 16 07:08:05 2021 34.0 F. 28.0 F.
Sat Jan 16 08:08:04 2021 34.0 F. 28.0 F.
Sat Jan 16 09:08:04 2021 35.0 F. 28.9 F.
Sat Jan 16 10:08:04 2021 35.0 F. 28.9 F.
Sat Jan 16 11:08:05 2021 39.0 F. 30.9 F.
Sat Jan 16 12:08:05 2021 38.0 F. 30.0 F.
Sat Jan 16 13:08:04 2021 38.0 F. 30.0 F.
Sat Jan 16 14:08:04 2021 39.0 F. 28.9 F.
Sat Jan 16 15:08:05 2021 40.0 F. 30.0 F.
Sat Jan 16 16:08:05 2021 39.0 F. 30.0 F.
Sat Jan 16 17:08:04 2021 39.0 F. 30.0 F.
Sat Jan 16 18:08:05 2021 37.0 F. 30.0 F.
Sat Jan 16 19:08:04 2021 37.0 F. 30.0 F.
Sat Jan 16 20:08:05 2021 37.0 F. 30.0 F.
Sat Jan 16 21:08:04 2021 37.0 F. 30.0 F.
Sat Jan 16 22:08:04 2021 37.0 F. 30.0 F.
Sat Jan 16 23:08:05 2021 36.0 F. 28.9 F.